IBE114 SCEL-LEMD

Flight info

Callsign IBE114
Flight time 13h 15m
Altitude 35000
Route TBN6A TBN UN527 JUA UW3 GILSA UZ108 TUC/N0502F340 UW5 SAL/N0499F350 UL322 LODIL DCT NEBED/N0496F370 DCT BUVIP UL322 TIM UM527 TRAPP DCT MUNTR/M085F390 DCT 27N040W 3330N03000W/M085F410 3730N02000W DCT GUNTI/N0488F400 DCT RIVRO/N0492F410 DCT BARDI/N0492F400 M191 RIDAV
Aircraft A359/H-SDE2E3GHIJ3J4J5LM1ORWXY/LB1D1

Departure

Time 2026-05-04 23:30
Airport Comodoro Arturo Merino Benítez International Airport (SCEL)

Arrival

Time 2026-05-05 12:45
Airport Adolfo Suárez Madrid–Barajas Airport (LEMD)
Time Latitude Longitude Altitude Speed Heading
2026-05-04 23:11 -33.40081 -70.79797 1558 ft 0 kts 357°
2026-05-04 23:12 -33.40098 -70.79796 1571 ft 4 kts 357°
2026-05-04 23:12 -33.40120 -70.79796 1571 ft 4 kts 351°
2026-05-04 23:13 -33.40142 -70.79788 1571 ft 4 kts 321°
2026-05-04 23:13 -33.40155 -70.79771 1571 ft 4 kts 283°
2026-05-04 23:13 -33.40158 -70.79740 1571 ft 4 kts 267°
2026-05-04 23:13 -33.40157 -70.79734 1571 ft 0 kts 267°
2026-05-04 23:17 -33.40154 -70.79757 1571 ft 6 kts 284°
2026-05-04 23:17 -33.40156 -70.79827 1571 ft 12 kts 261°
2026-05-04 23:18 -33.40158 -70.79944 1572 ft 16 kts 284°
2026-05-04 23:18 -33.40062 -70.80010 1573 ft 18 kts 352°
2026-05-04 23:18 -33.39925 -70.80014 1572 ft 20 kts 359°
2026-05-04 23:18 -33.39786 -70.80017 1572 ft 20 kts 356°
2026-05-04 23:19 -33.39650 -70.80028 1572 ft 20 kts 356°
2026-05-04 23:19 -33.39515 -70.80040 1572 ft 19 kts 355°
2026-05-04 23:19 -33.39383 -70.80050 1572 ft 19 kts 357°
2026-05-04 23:19 -33.39253 -70.80058 1572 ft 18 kts 357°
2026-05-04 23:20 -33.39126 -70.80066 1572 ft 18 kts 357°
2026-05-04 23:20 -33.39001 -70.80074 1573 ft 18 kts 356°
2026-05-04 23:20 -33.38878 -70.80081 1573 ft 17 kts 358°
2026-05-04 23:20 -33.38759 -70.80088 1573 ft 18 kts 357°
2026-05-04 23:21 -33.38637 -70.80095 1573 ft 17 kts 357°
2026-05-04 23:21 -33.38517 -70.80103 1573 ft 17 kts 357°
2026-05-04 23:21 -33.38397 -70.80109 1572 ft 17 kts 358°
2026-05-04 23:21 -33.38275 -70.80115 1572 ft 18 kts 358°
2026-05-04 23:22 -33.38153 -70.80121 1572 ft 17 kts 358°
2026-05-04 23:22 -33.38033 -70.80127 1572 ft 17 kts 358°
2026-05-04 23:22 -33.37912 -70.80133 1572 ft 17 kts 358°
2026-05-04 23:22 -33.37792 -70.80138 1572 ft 17 kts 358°
2026-05-04 23:23 -33.37674 -70.80144 1573 ft 17 kts 358°
2026-05-04 23:23 -33.37558 -70.80150 1572 ft 17 kts 358°
2026-05-04 23:23 -33.37443 -70.80155 1573 ft 17 kts 358°
2026-05-04 23:23 -33.37329 -70.80163 1573 ft 16 kts 357°
2026-05-04 23:24 -33.37217 -70.80170 1573 ft 17 kts 356°
2026-05-04 23:24 -33.37095 -70.80179 1573 ft 18 kts 356°
2026-05-04 23:24 -33.37019 -70.80256 1575 ft 14 kts 271°
2026-05-04 23:24 -33.37062 -70.80323 1579 ft 7 kts 211°
2026-05-04 23:25 -33.37076 -70.80329 1580 ft 0 kts 197°
2026-05-04 23:28 -33.37078 -70.80329 1580 ft 3 kts 197°
2026-05-04 23:29 -33.37132 -70.80351 1580 ft 14 kts 201°
2026-05-04 23:29 -33.37218 -70.80370 1579 ft 0 kts 178°
2026-05-04 23:29 -33.37292 -70.80368 1579 ft 37 kts 178°
2026-05-04 23:29 -33.37779 -70.80342 1578 ft 102 kts 177°
2026-05-04 23:30 -33.38686 -70.80294 1581 ft 157 kts 177°
2026-05-04 23:30 -33.39874 -70.80214 2047 ft 169 kts 177°
2026-05-04 23:30 -33.41061 -70.80186 2677 ft 174 kts 180°
2026-05-04 23:30 -33.42280 -70.80206 3246 ft 173 kts 182°
2026-05-04 23:31 -33.43521 -70.80157 3488 ft 185 kts 175°
2026-05-04 23:31 -33.44394 -70.80079 3591 ft 195 kts 175°
2026-05-04 23:31 -33.45799 -70.79960 3763 ft 211 kts 176°
2026-05-04 23:31 -33.47832 -70.79818 3990 ft 232 kts 176°
2026-05-04 23:32 -33.49509 -70.79718 4176 ft 249 kts 177°
2026-05-04 23:32 -33.51285 -70.79886 4414 ft 264 kts 195°
2026-05-04 23:32 -33.52883 -70.80992 4809 ft 271 kts 226°
2026-05-04 23:32 -33.53612 -70.82240 5133 ft 273 kts 247°
2026-05-04 23:33 -33.54164 -70.84415 5664 ft 274 kts 259°
2026-05-04 23:33 -33.54552 -70.86621 6225 ft 275 kts 260°
2026-05-04 23:33 -33.54942 -70.88878 6786 ft 277 kts 260°
2026-05-04 23:33 -33.55346 -70.91146 7355 ft 279 kts 260°
2026-05-04 23:34 -33.55760 -70.93423 7982 ft 280 kts 260°
2026-05-04 23:34 -33.56179 -70.95709 8594 ft 282 kts 260°
2026-05-04 23:34 -33.56604 -70.98012 8910 ft 284 kts 260°
2026-05-04 23:34 -33.56929 -71.00362 9023 ft 282 kts 275°
2026-05-04 23:35 -33.56469 -71.02584 9445 ft 280 kts 298°
2026-05-04 23:35 -33.55301 -71.04418 10117 ft 278 kts 319°
2026-05-04 23:35 -33.53598 -71.05584 10438 ft 292 kts 342°
2026-05-04 23:35 -33.51525 -71.05749 10667 ft 311 kts
2026-05-04 23:36 -33.49398 -71.04954 10928 ft 327 kts 17°
2026-05-04 23:36 -33.47233 -71.03947 11164 ft 342 kts 22°
2026-05-04 23:36 -33.45086 -71.02586 11419 ft 356 kts 26°
2026-05-04 23:36 -33.42910 -71.01059 11680 ft 368 kts 28°
2026-05-04 23:37 -33.40699 -70.99419 11938 ft 379 kts 29°
2026-05-04 23:37 -33.38440 -70.97700 12204 ft 389 kts 30°
2026-05-04 23:37 -33.36147 -70.95935 12566 ft 395 kts 30°
2026-05-04 23:37 -33.33860 -70.94179 13045 ft 396 kts 29°
2026-05-04 23:38 -33.31519 -70.92396 13474 ft 400 kts 29°
2026-05-04 23:38 -33.29155 -70.90609 13871 ft 404 kts 29°
2026-05-04 23:38 -33.26766 -70.88809 14253 ft 407 kts 28°
2026-05-04 23:38 -33.24360 -70.87002 14608 ft 410 kts 28°
2026-05-04 23:39 -33.21929 -70.85180 14942 ft 413 kts 28°
2026-05-04 23:39 -33.19482 -70.83348 15275 ft 417 kts 28°
2026-05-04 23:39 -33.17014 -70.81501 15645 ft 420 kts 28°
2026-05-04 23:39 -33.14535 -70.79642 16018 ft 424 kts 28°
2026-05-04 23:40 -33.12029 -70.77764 16380 ft 427 kts 28°
2026-05-04 23:40 -33.09505 -70.75873 16740 ft 430 kts 28°
2026-05-04 23:40 -33.06959 -70.73968 17102 ft 433 kts 28°
2026-05-04 23:40 -33.04397 -70.72049 17480 ft 436 kts 28°
2026-05-04 23:41 -33.01816 -70.70121 17873 ft 439 kts 28°
2026-05-04 23:41 -32.99246 -70.68202 18232 ft 442 kts 28°
2026-05-04 23:41 -32.96597 -70.66228 18597 ft 445 kts 27°
2026-05-04 23:41 -32.93960 -70.64264 18926 ft 448 kts 27°
2026-05-04 23:42 -32.91302 -70.62287 19252 ft 452 kts 27°
2026-05-04 23:42 -32.88633 -70.60300 19643 ft 454 kts 27°
2026-05-04 23:42 -32.85946 -70.58301 19990 ft 458 kts 27°
2026-05-04 23:42 -32.83265 -70.56308 20350 ft 461 kts 27°
2026-05-04 23:43 -32.80538 -70.54283 20704 ft 464 kts 27°
2026-05-04 23:43 -32.77785 -70.52239 21056 ft 468 kts 27°
2026-05-04 23:43 -32.75008 -70.50181 21410 ft 472 kts 28°
2026-05-04 23:43 -32.72214 -70.48102 21742 ft 475 kts 27°
2026-05-04 23:44 -32.69406 -70.46019 22158 ft 477 kts 26°
2026-05-04 23:44 -32.66576 -70.43926 22467 ft 481 kts 27°
2026-05-04 23:44 -32.63715 -70.41815 22751 ft 485 kts 27°
2026-05-04 23:44 -32.60835 -70.39690 23153 ft 489 kts 26°
2026-05-04 23:45 -32.57931 -70.37556 23524 ft 493 kts 26°
2026-05-04 23:45 -32.55012 -70.35407 23839 ft 497 kts 26°
2026-05-04 23:45 -32.52069 -70.33235 24197 ft 499 kts 26°
2026-05-04 23:45 -32.49114 -70.31056 24597 ft 502 kts 26°
2026-05-04 23:46 -32.46144 -70.28867 24942 ft 504 kts 25°
2026-05-04 23:46 -32.43190 -70.26701 25285 ft 507 kts 25°
2026-05-04 23:46 -32.40279 -70.24288 25573 ft 516 kts 33°
2026-05-04 23:46 -32.37649 -70.21329 25962 ft 527 kts 44°
2026-05-04 23:47 -32.35430 -70.17832 26273 ft 536 kts 52°
2026-05-04 23:47 -32.33497 -70.14022 26609 ft 542 kts 57°
2026-05-04 23:47 -32.31728 -70.10072 26905 ft 547 kts 59°
2026-05-04 23:47 -32.30019 -70.06029 27180 ft 550 kts 60°
2026-05-04 23:48 -32.28321 -70.01972 27523 ft 552 kts 59°
2026-05-04 23:48 -32.26603 -69.97910 27854 ft 554 kts 59°
2026-05-04 23:48 -32.24859 -69.93853 28120 ft 555 kts 59°
2026-05-04 23:48 -32.23086 -69.89795 28396 ft 557 kts 58°
2026-05-04 23:49 -32.21290 -69.85725 28709 ft 559 kts 58°
2026-05-04 23:49 -32.19489 -69.81661 28979 ft 559 kts 58°
2026-05-04 23:49 -32.18044 -69.78414 29220 ft 559 kts 58°
2026-05-04 23:50 -32.16870 -69.75776 29509 ft 557 kts 58°
2026-05-04 23:50 -32.16341 -69.74588 29657 ft 556 kts 58°
2026-05-04 23:50 -32.14805 -69.71139 30037 ft 554 kts 58°
2026-05-04 23:50 -32.13017 -69.67124 30406 ft 552 kts 58°
2026-05-04 23:51 -32.11237 -69.63129 30769 ft 549 kts 58°
2026-05-04 23:51 -32.09458 -69.59143 31043 ft 549 kts 58°
2026-05-04 23:51 -32.07682 -69.55165 31302 ft 547 kts 58°
2026-05-04 23:51 -32.05909 -69.51190 31541 ft 547 kts 58°
2026-05-04 23:52 -32.04135 -69.47228 31780 ft 547 kts 58°
2026-05-04 23:52 -32.02358 -69.43265 32043 ft 546 kts 58°
2026-05-04 23:52 -32.00583 -69.39314 32288 ft 546 kts 58°
2026-05-04 23:52 -31.98810 -69.35369 32547 ft 545 kts 58°
2026-05-04 23:53 -31.97034 -69.31422 32815 ft 544 kts 58°
2026-05-04 23:53 -31.95261 -69.27483 33066 ft 544 kts 58°
2026-05-04 23:53 -31.93489 -69.23552 33341 ft 544 kts 58°
2026-05-04 23:53 -31.91716 -69.19620 33608 ft 543 kts 58°
2026-05-04 23:54 -31.89948 -69.15703 33858 ft 542 kts 58°
2026-05-04 23:54 -31.88180 -69.11793 34098 ft 541 kts 58°
2026-05-04 23:54 -31.86411 -69.07881 34283 ft 541 kts 58°
2026-05-04 23:54 -31.84642 -69.03976 34434 ft 541 kts 58°
2026-05-04 23:55 -31.82871 -69.00071 34658 ft 539 kts 58°
2026-05-04 23:55 -31.81103 -68.96174 34825 ft 540 kts 58°
2026-05-04 23:56 -31.75773 -68.84463 34850 ft 547 kts 58°
2026-05-04 23:56 -31.72182 -68.76589 34827 ft 546 kts 58°
2026-05-04 23:57 -31.68588 -68.68723 34826 ft 546 kts 58°
2026-05-04 23:57 -31.64986 -68.60859 34825 ft 547 kts 58°
2026-05-04 23:58 -31.61376 -68.52994 34827 ft 548 kts 58°
2026-05-04 23:58 -31.57585 -68.45256 34827 ft 543 kts 49°
2026-05-04 23:59 -31.52356 -68.39108 34833 ft 526 kts 29°
2026-05-04 23:59 -31.46316 -68.34299 34824 ft 525 kts 26°
2026-05-05 00:00 -31.40165 -68.29697 34818 ft 525 kts 26°
2026-05-05 00:00 -31.34004 -68.25079 34815 ft 526 kts 26°
2026-05-05 00:01 -31.27858 -68.20431 34808 ft 527 kts 26°
2026-05-05 00:01 -31.21712 -68.15769 34792 ft 526 kts 26°
2026-05-05 00:02 -31.15604 -68.11141 34795 ft 526 kts 26°
2026-05-05 00:02 -31.09460 -68.06496 34789 ft 526 kts 26°
2026-05-05 00:03 -31.03311 -68.01856 34790 ft 526 kts 26°
2026-05-05 00:03 -30.97152 -67.97217 34785 ft 526 kts 26°
2026-05-05 00:04 -30.90995 -67.92585 34785 ft 527 kts 26°
2026-05-05 00:04 -30.84827 -67.87952 34790 ft 527 kts 26°
2026-05-05 00:05 -30.78702 -67.83359 34794 ft 527 kts 26°
2026-05-05 00:05 -30.72530 -67.78737 34808 ft 528 kts 26°
2026-05-05 00:06 -30.66354 -67.74116 34817 ft 528 kts 26°
2026-05-05 00:06 -30.60176 -67.69505 34830 ft 527 kts 26°
2026-05-05 00:07 -30.54004 -67.64898 34842 ft 528 kts 26°
2026-05-05 00:07 -30.47817 -67.60295 34852 ft 529 kts 26°
2026-05-05 00:08 -30.41622 -67.55699 34856 ft 529 kts 26°
2026-05-05 00:08 -30.35427 -67.51104 34856 ft 528 kts 26°
2026-05-05 00:09 -30.29233 -67.46518 34859 ft 528 kts 26°
2026-05-05 00:09 -30.23049 -67.41944 34855 ft 528 kts 26°
2026-05-05 00:10 -30.16861 -67.37374 34853 ft 527 kts 26°
2026-05-05 00:10 -30.10680 -67.32819 34849 ft 527 kts 26°
2026-05-05 00:11 -30.04486 -67.28260 34854 ft 528 kts 26°
2026-05-05 00:11 -29.98289 -67.23707 34834 ft 528 kts 26°
2026-05-05 00:12 -29.92120 -67.19179 34838 ft 529 kts 26°
2026-05-05 00:12 -29.85917 -67.14631 34840 ft 529 kts 26°
2026-05-05 00:13 -29.79698 -67.10081 34831 ft 529 kts 26°
2026-05-05 00:13 -29.73483 -67.05540 34837 ft 529 kts 26°
2026-05-05 00:14 -29.67262 -67.01004 34831 ft 530 kts 26°
2026-05-05 00:14 -29.61039 -66.96464 34837 ft 524 kts 26°
2026-05-05 00:15 -29.54977 -66.92040 34845 ft 512 kts 26°
2026-05-05 00:15 -29.48958 -66.87674 34852 ft 512 kts 26°
2026-05-05 00:16 -29.42929 -66.83309 34854 ft 513 kts 26°
2026-05-05 00:16 -29.36943 -66.78953 34853 ft 514 kts 27°
2026-05-05 00:17 -29.31111 -66.74123 34851 ft 518 kts 31°
2026-05-05 00:17 -29.25370 -66.69128 34850 ft 518 kts 31°
2026-05-05 00:18 -29.19598 -66.64198 34842 ft 518 kts 30°
2026-05-05 00:18 -29.13955 -66.59460 34835 ft 518 kts 30°
2026-05-05 00:19 -29.08129 -66.54599 34831 ft 518 kts 30°
2026-05-05 00:19 -29.05391 -66.52316 34830 ft 518 kts 30°
2026-05-05 00:20 -29.00553 -66.48284 34827 ft 518 kts 30°
2026-05-05 00:20 -28.93792 -66.42655 34829 ft 517 kts 30°
2026-05-05 00:21 -28.87968 -66.37813 34829 ft 518 kts 30°
2026-05-05 00:21 -28.83090 -66.33762 34831 ft 517 kts 30°
2026-05-05 00:22 -28.77271 -66.28937 34814 ft 517 kts 30°
2026-05-05 00:22 -28.71449 -66.24107 34830 ft 519 kts 30°
2026-05-05 00:23 -28.65612 -66.19282 34831 ft 518 kts 30°
2026-05-05 00:23 -28.59820 -66.14500 34829 ft 517 kts 30°
2026-05-05 00:24 -28.53981 -66.09691 34827 ft 519 kts 30°
2026-05-05 00:24 -28.48119 -66.04874 34834 ft 521 kts 30°
2026-05-05 00:25 -28.42254 -66.00041 34834 ft 520 kts 29°
2026-05-05 00:25 -28.36393 -65.95219 34857 ft 523 kts 29°
2026-05-05 00:26 -28.30506 -65.90397 34848 ft 521 kts 30°
2026-05-05 00:26 -28.24619 -65.85577 34866 ft 521 kts 29°
2026-05-05 00:27 -28.18736 -65.80766 34867 ft 521 kts 30°
2026-05-05 00:27 -28.12845 -65.75954 34877 ft 522 kts 29°
2026-05-05 00:28 -28.06962 -65.71153 34877 ft 522 kts 29°
2026-05-05 00:28 -28.01064 -65.66350 34881 ft 522 kts 29°
2026-05-05 00:29 -27.95173 -65.61557 34888 ft 521 kts 29°
2026-05-05 00:29 -27.89289 -65.56781 34875 ft 521 kts 29°
2026-05-05 00:30 -27.83385 -65.51995 34882 ft 522 kts 29°
2026-05-05 00:30 -27.77524 -65.47247 34879 ft 522 kts 29°
2026-05-05 00:31 -27.71454 -65.42822 34871 ft 511 kts 18°
2026-05-05 00:31 -27.64892 -65.40001 34875 ft 503 kts 11°
2026-05-05 00:32 -27.58241 -65.37568 34875 ft 502 kts 10°
2026-05-05 00:32 -27.51578 -65.35183 34872 ft 502 kts 10°
2026-05-05 00:33 -27.44918 -65.32772 34868 ft 503 kts 10°
2026-05-05 00:33 -27.38298 -65.30358 34869 ft 503 kts 10°
2026-05-05 00:34 -27.31628 -65.27924 34867 ft 504 kts 10°
2026-05-05 00:34 -27.24955 -65.25492 34870 ft 504 kts 10°
2026-05-05 00:35 -27.18284 -65.23066 34869 ft 504 kts 10°
2026-05-05 00:35 -27.11601 -65.20639 34875 ft 505 kts 10°
2026-05-05 00:36 -27.04913 -65.18213 34874 ft 505 kts 10°
2026-05-05 00:36 -26.98218 -65.15788 34883 ft 505 kts 10°
2026-05-05 00:37 -26.91565 -65.13380 34887 ft 506 kts 10°
2026-05-05 00:37 -26.84810 -65.11604 34880 ft 490 kts 356°
2026-05-05 00:37 -26.81439 -65.11573 34884 ft 478 kts 346°
2026-05-05 00:38 -26.78156 -65.12012 34888 ft 474 kts 343°
2026-05-05 00:38 -26.71661 -65.13217 34885 ft 473 kts 341°
2026-05-05 00:39 -26.65198 -65.14516 34888 ft 473 kts 341°
2026-05-05 00:39 -26.58715 -65.15788 34894 ft 472 kts 342°
2026-05-05 00:40 -26.52286 -65.17021 34906 ft 472 kts 342°
2026-05-05 00:40 -26.45810 -65.18253 34912 ft 472 kts 342°
2026-05-05 00:41 -26.39339 -65.19481 34919 ft 472 kts 342°
2026-05-05 00:41 -26.32865 -65.20710 34925 ft 472 kts 342°
2026-05-05 00:42 -26.26399 -65.21936 34927 ft 471 kts 342°
2026-05-05 00:42 -26.19931 -65.23162 34931 ft 471 kts 342°
2026-05-05 00:43 -26.13468 -65.24386 34929 ft 471 kts 342°
2026-05-05 00:43 -26.07005 -65.25609 34935 ft 471 kts 342°
2026-05-05 00:44 -26.00546 -65.26830 34937 ft 471 kts 342°
2026-05-05 00:44 -25.94123 -65.28042 34944 ft 471 kts 342°
2026-05-05 00:45 -25.87659 -65.29261 34948 ft 471 kts 342°
2026-05-05 00:45 -25.81188 -65.30483 34944 ft 472 kts 342°
2026-05-05 00:46 -25.74710 -65.31700 34950 ft 472 kts 342°
2026-05-05 00:46 -25.68220 -65.32923 34953 ft 473 kts 342°
2026-05-05 00:47 -25.61720 -65.34139 34957 ft 474 kts 342°
2026-05-05 00:47 -25.55201 -65.35356 34960 ft 474 kts 342°
2026-05-05 00:48 -25.48694 -65.36571 34956 ft 473 kts 342°
2026-05-05 00:48 -25.42256 -65.37776 34967 ft 472 kts 342°
2026-05-05 00:49 -25.35773 -65.38990 34970 ft 472 kts 342°
2026-05-05 00:49 -25.29296 -65.40201 34968 ft 472 kts 342°
2026-05-05 00:50 -25.22820 -65.41408 34968 ft 471 kts 342°
2026-05-05 00:50 -25.16354 -65.42613 34978 ft 471 kts 342°
2026-05-05 00:51 -25.09893 -65.43815 34983 ft 471 kts 342°
2026-05-05 00:51 -25.03423 -65.45017 34987 ft 471 kts 342°
2026-05-05 00:52 -24.96963 -65.46216 34992 ft 471 kts 342°
2026-05-05 00:52 -24.91380 -65.47253 34994 ft 471 kts 342°
2026-05-05 00:53 -24.84755 -65.47698 34993 ft 487 kts 357°
2026-05-05 00:53 -24.78031 -65.46079 34994 ft 500 kts
2026-05-05 00:54 -24.71356 -65.43809 34989 ft 503 kts 10°
2026-05-05 00:54 -24.64694 -65.41479 34989 ft 501 kts 10°
2026-05-05 00:55 -24.58040 -65.39197 34987 ft 501 kts 10°
2026-05-05 00:55 -24.51364 -65.36940 34978 ft 502 kts
2026-05-05 00:56 -24.44679 -65.34690 34964 ft 502 kts
2026-05-05 00:56 -24.38049 -65.32459 34971 ft 501 kts 10°
2026-05-05 00:57 -24.31373 -65.30213 34974 ft 502 kts
2026-05-05 00:57 -24.24692 -65.27970 34970 ft 503 kts
2026-05-05 00:58 -24.18002 -65.25724 34973 ft 502 kts
2026-05-05 00:58 -24.11326 -65.23484 34976 ft 501 kts
2026-05-05 00:59 -24.04658 -65.21251 34977 ft 501 kts
2026-05-05 00:59 -23.97989 -65.19020 34966 ft 502 kts 10°
2026-05-05 01:00 -23.91315 -65.16791 34973 ft 500 kts
2026-05-05 01:00 -23.84647 -65.14567 34970 ft 501 kts
2026-05-05 01:01 -23.77980 -65.12345 34978 ft 501 kts 10°
2026-05-05 01:01 -23.71323 -65.10127 34967 ft 500 kts 10°
2026-05-05 01:02 -23.64720 -65.07928 34966 ft 499 kts 10°
2026-05-05 01:02 -23.58061 -65.05716 34965 ft 500 kts 10°
2026-05-05 01:03 -23.51408 -65.03506 34972 ft 500 kts
2026-05-05 01:03 -23.44748 -65.01298 34981 ft 500 kts 10°
2026-05-05 01:04 -23.38107 -64.99098 34980 ft 499 kts 10°
2026-05-05 01:04 -23.29016 -64.96089 34987 ft 499 kts
2026-05-05 01:05 -23.22364 -64.93900 34978 ft 499 kts 10°
2026-05-05 01:05 -23.15711 -64.91709 34970 ft 500 kts 11°
2026-05-05 01:06 -23.09050 -64.89507 34988 ft 502 kts 11°
2026-05-05 01:06 -23.02381 -64.87303 34965 ft 500 kts 11°
2026-05-05 01:07 -22.95760 -64.85121 34967 ft 500 kts 10°
2026-05-05 01:07 -22.89098 -64.82935 34956 ft 501 kts 11°
2026-05-05 01:08 -22.82427 -64.80743 34960 ft 501 kts 11°
2026-05-05 01:08 -22.75759 -64.78557 34955 ft 501 kts 11°
2026-05-05 01:09 -22.69089 -64.76374 34948 ft 501 kts 11°
2026-05-05 01:09 -22.62426 -64.74195 34942 ft 499 kts 11°
2026-05-05 01:10 -22.55792 -64.72021 34952 ft 498 kts 11°
2026-05-05 01:10 -22.50275 -64.70217 34945 ft 499 kts 11°
2026-05-05 01:11 -22.43623 -64.68044 34945 ft 499 kts 11°
2026-05-05 01:11 -22.36985 -64.65878 34946 ft 499 kts 11°
2026-05-05 01:12 -22.30323 -64.63710 34948 ft 502 kts 11°
2026-05-05 01:12 -22.23658 -64.61545 34938 ft 498 kts 11°
2026-05-05 01:13 -22.17076 -64.59422 34936 ft 496 kts 12°
2026-05-05 01:13 -22.10458 -64.57308 34947 ft 496 kts 11°
2026-05-05 01:14 -22.03838 -64.55197 34939 ft 494 kts 11°
2026-05-05 01:14 -21.97237 -64.53090 34957 ft 495 kts 11°
2026-05-05 01:15 -21.90636 -64.50985 34949 ft 494 kts 11°
2026-05-05 01:15 -21.84044 -64.48887 34959 ft 494 kts 11°
2026-05-05 01:16 -21.77455 -64.46791 34966 ft 494 kts 11°
2026-05-05 01:16 -21.70861 -64.44695 34976 ft 494 kts 12°
2026-05-05 01:17 -21.64263 -64.42601 34977 ft 494 kts 12°
2026-05-05 01:17 -21.57679 -64.40509 34977 ft 493 kts 12°
2026-05-05 01:18 -21.51133 -64.38434 34981 ft 493 kts 12°
2026-05-05 01:18 -21.44551 -64.36348 34960 ft 493 kts 12°
2026-05-05 01:19 -21.37972 -64.34270 34941 ft 493 kts 12°
2026-05-05 01:19 -21.31377 -64.32190 34952 ft 494 kts 12°
2026-05-05 01:20 -21.24792 -64.30068 34941 ft 494 kts 12°
2026-05-05 01:20 -21.18196 -64.27955 34941 ft 496 kts 12°
2026-05-05 01:21 -21.11599 -64.25849 34930 ft 495 kts 12°
2026-05-05 01:21 -21.05036 -64.23753 34933 ft 495 kts 12°
2026-05-05 01:22 -20.98431 -64.21644 34927 ft 494 kts 12°
2026-05-05 01:22 -20.91833 -64.19548 34923 ft 494 kts 12°
2026-05-05 01:23 -20.85245 -64.17458 34923 ft 494 kts 12°
2026-05-05 01:23 -20.78658 -64.15366 34923 ft 494 kts 12°
2026-05-05 01:24 -20.72107 -64.13285 34918 ft 494 kts 12°
2026-05-05 01:24 -20.65516 -64.11196 34922 ft 494 kts 12°
2026-05-05 01:25 -20.58933 -64.09099 34924 ft 494 kts 12°
2026-05-05 01:25 -20.52357 -64.06992 34928 ft 493 kts 12°
2026-05-05 01:26 -20.45791 -64.04894 34921 ft 492 kts 12°
2026-05-05 01:26 -20.39218 -64.02797 34932 ft 493 kts 12°
2026-05-05 01:27 -20.32643 -64.00705 34938 ft 493 kts 12°
2026-05-05 01:27 -20.26069 -63.98616 34937 ft 493 kts 12°
2026-05-05 01:28 -20.19505 -63.96529 34938 ft 493 kts 12°
2026-05-05 01:28 -20.12935 -63.94442 34938 ft 493 kts 12°
2026-05-05 01:29 -20.06359 -63.92361 34942 ft 493 kts 12°
2026-05-05 01:29 -19.99782 -63.90274 34939 ft 493 kts 12°
2026-05-05 01:30 -19.93252 -63.88197 34938 ft 493 kts 12°
2026-05-05 01:30 -19.86672 -63.86111 34935 ft 493 kts 12°
2026-05-05 01:31 -19.80103 -63.84014 34937 ft 493 kts 12°
2026-05-05 01:31 -19.73524 -63.81909 34936 ft 494 kts 12°
2026-05-05 01:32 -19.66937 -63.79809 34932 ft 494 kts 12°
2026-05-05 01:32 -19.60363 -63.77719 34935 ft 493 kts 12°
2026-05-05 01:33 -19.53779 -63.75626 34930 ft 494 kts 12°
2026-05-05 01:33 -19.47193 -63.73533 34925 ft 494 kts 12°
2026-05-05 01:34 -19.40614 -63.71444 34922 ft 494 kts 13°
2026-05-05 01:34 -19.34019 -63.69351 34923 ft 494 kts 12°
2026-05-05 01:35 -19.27428 -63.67262 34919 ft 494 kts 12°
2026-05-05 01:35 -19.20876 -63.65188 34915 ft 494 kts 12°
2026-05-05 01:36 -19.14279 -63.63104 34911 ft 494 kts 12°
2026-05-05 01:36 -19.07695 -63.61023 34911 ft 494 kts 12°
2026-05-05 01:37 -19.01092 -63.58938 34909 ft 494 kts 12°
2026-05-05 01:37 -18.94539 -63.56870 34906 ft 494 kts 12°
2026-05-05 01:38 -18.87952 -63.54793 34904 ft 494 kts 13°
2026-05-05 01:38 -18.81368 -63.52676 34901 ft 494 kts 13°
2026-05-05 01:39 -18.74798 -63.50552 34902 ft 494 kts 13°
2026-05-05 01:39 -18.68217 -63.48434 34897 ft 494 kts 13°
2026-05-05 01:40 -18.61643 -63.46328 34902 ft 494 kts 13°
2026-05-05 01:40 -18.55072 -63.44223 34903 ft 494 kts 13°
2026-05-05 01:41 -18.48497 -63.42119 34904 ft 494 kts 13°
2026-05-05 01:41 -18.41958 -63.40028 34907 ft 494 kts 13°
2026-05-05 01:42 -18.35383 -63.37927 34909 ft 494 kts 13°
2026-05-05 01:42 -18.28812 -63.35830 34909 ft 494 kts 13°
2026-05-05 01:43 -18.22237 -63.33732 34911 ft 494 kts 13°
2026-05-05 01:43 -18.15658 -63.31634 34914 ft 494 kts 13°
2026-05-05 01:44 -18.09082 -63.29539 34916 ft 494 kts 13°
2026-05-05 01:44 -18.02494 -63.27442 34920 ft 494 kts 13°
2026-05-05 01:45 -17.95913 -63.25350 34918 ft 494 kts 13°
2026-05-05 01:45 -17.89367 -63.23269 34927 ft 494 kts 13°
2026-05-05 01:46 -17.82785 -63.21179 34931 ft 494 kts 13°
2026-05-05 01:46 -17.76198 -63.19089 34938 ft 494 kts 13°
2026-05-05 01:47 -17.69621 -63.17004 34937 ft 494 kts 13°
2026-05-05 01:47 -17.63018 -63.14978 34935 ft 492 kts
2026-05-05 01:48 -17.56306 -63.13632 34938 ft 491 kts
2026-05-05 01:48 -17.49575 -63.12432 34937 ft 490 kts
2026-05-05 01:49 -17.42877 -63.11259 34936 ft 490 kts
2026-05-05 01:49 -17.36143 -63.10071 34932 ft 490 kts
2026-05-05 01:50 -17.29415 -63.08877 34931 ft 490 kts
2026-05-05 01:50 -17.22681 -63.07681 34930 ft 490 kts
2026-05-05 01:51 -17.15956 -63.06488 34931 ft 490 kts
2026-05-05 01:51 -17.09223 -63.05295 34933 ft 490 kts
2026-05-05 01:52 -17.02544 -63.04112 34942 ft 490 kts
2026-05-05 01:52 -16.95817 -63.02922 34935 ft 490 kts
2026-05-05 01:53 -16.89090 -63.01732 34942 ft 490 kts
2026-05-05 01:53 -16.82359 -63.00543 34938 ft 490 kts
2026-05-05 01:54 -16.75632 -62.99355 34945 ft 490 kts
2026-05-05 01:54 -16.68907 -62.98169 34947 ft 490 kts
2026-05-05 01:55 -16.62181 -62.96983 34945 ft 490 kts
2026-05-05 01:55 -16.55455 -62.95798 34950 ft 490 kts
2026-05-05 01:56 -16.48777 -62.94622 34952 ft 490 kts
2026-05-05 01:56 -16.42041 -62.93437 34956 ft 490 kts
2026-05-05 01:57 -16.35317 -62.92254 34954 ft 490 kts
2026-05-05 01:57 -16.28585 -62.91074 34961 ft 491 kts
2026-05-05 01:58 -16.21849 -62.89872 34970 ft 491 kts
2026-05-05 01:58 -16.15165 -62.88664 34968 ft 491 kts
2026-05-05 01:59 -16.08427 -62.87453 34972 ft 491 kts
2026-05-05 01:59 -16.01699 -62.86249 34981 ft 491 kts
2026-05-05 02:00 -15.94962 -62.85045 34980 ft 491 kts
2026-05-05 02:00 -15.88220 -62.83842 34982 ft 491 kts
2026-05-05 02:01 -15.81476 -62.82638 34984 ft 492 kts
2026-05-05 02:01 -15.74733 -62.81436 34986 ft 492 kts
2026-05-05 02:02 -15.69125 -62.80436 34984 ft 491 kts
2026-05-05 02:02 -15.62383 -62.79236 34976 ft 491 kts
2026-05-05 02:03 -15.54549 -62.77841 34985 ft 491 kts
2026-05-05 02:03 -15.48942 -62.76843 34982 ft 491 kts
2026-05-05 02:04 -15.42202 -62.75645 34981 ft 491 kts
2026-05-05 02:04 -15.35462 -62.74448 34988 ft 491 kts
2026-05-05 02:05 -15.28727 -62.73253 34987 ft 491 kts
2026-05-05 02:05 -15.21991 -62.72057 34987 ft 490 kts
2026-05-05 02:06 -15.15256 -62.70863 34988 ft 490 kts
2026-05-05 02:06 -15.08538 -62.69673 34987 ft 490 kts
2026-05-05 02:07 -15.01850 -62.68491 34987 ft 490 kts
2026-05-05 02:07 -14.95137 -62.67292 34986 ft 489 kts
2026-05-05 02:08 -14.88428 -62.66086 34985 ft 489 kts
2026-05-05 02:08 -14.81724 -62.64885 34986 ft 489 kts
2026-05-05 02:09 -14.75021 -62.63687 34986 ft 489 kts
2026-05-05 02:09 -14.68310 -62.62489 34984 ft 489 kts
2026-05-05 02:10 -14.61613 -62.61294 34985 ft 489 kts
2026-05-05 02:10 -14.54905 -62.60098 34986 ft 489 kts
2026-05-05 02:11 -14.48244 -62.58911 34982 ft 489 kts
2026-05-05 02:11 -14.41535 -62.57717 34981 ft 489 kts
2026-05-05 02:12 -14.31480 -62.55928 34980 ft 489 kts
2026-05-05 02:13 -14.24770 -62.54735 34982 ft 489 kts
2026-05-05 02:13 -14.18063 -62.53543 34979 ft 489 kts
2026-05-05 02:14 -14.11349 -62.52350 34982 ft 489 kts
2026-05-05 02:14 -14.04692 -62.51169 34986 ft 489 kts
2026-05-05 02:15 -13.97978 -62.49978 34987 ft 490 kts
2026-05-05 02:15 -13.91264 -62.48788 34989 ft 489 kts
2026-05-05 02:16 -13.84550 -62.47598 34989 ft 490 kts
2026-05-05 02:16 -13.77833 -62.46409 34985 ft 490 kts
2026-05-05 02:17 -13.71106 -62.45222 34986 ft 490 kts
2026-05-05 02:17 -13.64426 -62.44030 34986 ft 490 kts
2026-05-05 02:18 -13.57702 -62.42825 34986 ft 490 kts
2026-05-05 02:18 -13.50972 -62.41623 34986 ft 490 kts
2026-05-05 02:19 -13.44253 -62.40425 34986 ft 490 kts
2026-05-05 02:19 -13.37524 -62.39228 34985 ft 491 kts
2026-05-05 02:20 -13.30796 -62.38031 34982 ft 491 kts
2026-05-05 02:20 -13.24060 -62.36833 34982 ft 491 kts
2026-05-05 02:21 -13.17323 -62.35636 34983 ft 491 kts
2026-05-05 02:21 -13.10642 -62.34422 34982 ft 491 kts
2026-05-05 02:22 -13.03930 -62.33117 34980 ft 491 kts
2026-05-05 02:22 -12.97207 -62.31806 34984 ft 491 kts
2026-05-05 02:23 -12.90489 -62.30511 34983 ft 491 kts
2026-05-05 02:23 -12.83767 -62.29223 34983 ft 491 kts
2026-05-05 02:24 -12.77047 -62.27938 34982 ft 491 kts
2026-05-05 02:24 -12.70329 -62.26655 34983 ft 491 kts
2026-05-05 02:25 -12.63611 -62.25371 34987 ft 491 kts
2026-05-05 02:25 -12.56936 -62.24096 34987 ft 491 kts
2026-05-05 02:26 -12.50224 -62.22815 34994 ft 491 kts
2026-05-05 02:26 -12.43509 -62.21534 34992 ft 491 kts
2026-05-05 02:27 -12.36795 -62.20254 34995 ft 491 kts
2026-05-05 02:27 -12.30082 -62.18975 35000 ft 491 kts
2026-05-05 02:28 -12.23361 -62.17699 35002 ft 491 kts
2026-05-05 02:28 -12.16642 -62.16422 35003 ft 491 kts
2026-05-05 02:29 -12.09916 -62.15140 35003 ft 491 kts
2026-05-05 02:29 -12.03247 -62.13871 35004 ft 491 kts
2026-05-05 02:30 -11.96491 -62.12587 35004 ft 491 kts
2026-05-05 02:30 -11.89817 -62.11320 35005 ft 491 kts
2026-05-05 02:31 -11.83097 -62.10045 35000 ft 491 kts
2026-05-05 02:31 -11.76386 -62.08773 35000 ft 491 kts
2026-05-05 02:32 -11.69663 -62.07571 34993 ft 490 kts
2026-05-05 02:32 -11.62924 -62.06532 34993 ft 490 kts
2026-05-05 02:33 -11.56180 -62.05498 34995 ft 490 kts
2026-05-05 02:33 -11.49432 -62.04436 34994 ft 490 kts
2026-05-05 02:34 -11.42687 -62.03363 34993 ft 490 kts
2026-05-05 02:34 -11.35947 -62.02289 34989 ft 490 kts
2026-05-05 02:35 -11.29211 -62.01222 34992 ft 490 kts
2026-05-05 02:35 -11.22478 -62.00150 34991 ft 489 kts
2026-05-05 02:36 -11.15799 -61.99087 34990 ft 489 kts
2026-05-05 02:36 -11.09071 -61.98018 34993 ft 489 kts
2026-05-05 02:37 -11.02351 -61.96952 34994 ft 489 kts
2026-05-05 02:37 -10.95629 -61.95889 34994 ft 489 kts
2026-05-05 02:38 -10.88894 -61.94926 34995 ft 489 kts
2026-05-05 02:38 -10.82153 -61.94011 34993 ft 489 kts
2026-05-05 02:39 -10.75403 -61.93082 34992 ft 489 kts
2026-05-05 02:39 -10.68657 -61.92143 34993 ft 489 kts
2026-05-05 02:40 -10.61913 -61.91200 34998 ft 489 kts
2026-05-05 02:40 -10.55177 -61.90258 34996 ft 488 kts
2026-05-05 02:41 -10.48480 -61.89322 34996 ft 488 kts
2026-05-05 02:41 -10.41716 -61.88379 34998 ft 488 kts
2026-05-05 02:42 -10.35043 -61.87448 34999 ft 487 kts
2026-05-05 02:42 -10.28320 -61.86511 35000 ft 487 kts
2026-05-05 02:43 -10.21591 -61.85573 35002 ft 487 kts
2026-05-05 02:43 -10.14869 -61.84637 35003 ft 487 kts
2026-05-05 02:44 -10.08186 -61.83706 35002 ft 487 kts
2026-05-05 02:44 -10.01466 -61.82771 35000 ft 487 kts
2026-05-05 02:45 -9.94751 -61.81837 35000 ft 487 kts
2026-05-05 02:45 -9.88037 -61.80903 35002 ft 487 kts
2026-05-05 02:46 -9.81318 -61.79969 35000 ft 487 kts
2026-05-05 02:46 -9.74605 -61.79036 35000 ft 487 kts
2026-05-05 02:47 -9.67893 -61.78104 35001 ft 487 kts
2026-05-05 02:47 -9.61178 -61.77172 35003 ft 487 kts
2026-05-05 02:48 -9.54462 -61.76240 35001 ft 487 kts
2026-05-05 02:48 -9.47790 -61.75314 35002 ft 487 kts
2026-05-05 02:49 -9.41073 -61.74383 35002 ft 487 kts
2026-05-05 02:49 -9.34363 -61.73453 35002 ft 487 kts
2026-05-05 02:50 -9.27656 -61.72524 35003 ft 486 kts
2026-05-05 02:50 -9.20947 -61.71594 35005 ft 486 kts
2026-05-05 02:51 -9.14244 -61.70666 35003 ft 486 kts
2026-05-05 02:51 -9.07538 -61.69738 35004 ft 486 kts
2026-05-05 02:52 -9.00834 -61.68811 35002 ft 486 kts
2026-05-05 02:52 -8.94123 -61.67883 35002 ft 486 kts
2026-05-05 02:53 -8.88550 -61.67112 34999 ft 486 kts
2026-05-05 02:53 -8.80758 -61.66035 35001 ft 486 kts
2026-05-05 02:54 -8.74052 -61.65109 35004 ft 486 kts
2026-05-05 02:54 -8.68436 -61.64333 35001 ft 486 kts
2026-05-05 02:55 -8.60639 -61.63257 35002 ft 487 kts
2026-05-05 02:55 -8.55061 -61.62487 35003 ft 487 kts
2026-05-05 02:56 -8.48343 -61.61560 35004 ft 487 kts
2026-05-05 02:56 -8.41634 -61.60635 35003 ft 487 kts
2026-05-05 02:57 -8.34930 -61.59711 35005 ft 486 kts
2026-05-05 02:57 -8.28225 -61.58787 35005 ft 485 kts
2026-05-05 02:58 -8.21543 -61.57867 35005 ft 484 kts
2026-05-05 02:58 -8.14862 -61.56947 35008 ft 484 kts
2026-05-05 02:59 -8.08187 -61.56028 35005 ft 484 kts
2026-05-05 02:59 -8.01516 -61.55110 35009 ft 484 kts
2026-05-05 03:00 -7.94957 -61.54207 35005 ft 484 kts
2026-05-05 03:00 -7.88271 -61.53288 35010 ft 485 kts
2026-05-05 03:01 -7.81587 -61.52369 35011 ft 485 kts
2026-05-05 03:01 -7.74900 -61.51450 35009 ft 485 kts
2026-05-05 03:02 -7.68204 -61.50530 35005 ft 485 kts
2026-05-05 03:02 -7.61517 -61.49611 35009 ft 485 kts
2026-05-05 03:03 -7.54822 -61.48692 35009 ft 493 kts
2026-05-05 03:03 -7.47953 -61.47749 35009 ft 503 kts
2026-05-05 03:04 -7.40989 -61.46793 35008 ft 504 kts
2026-05-05 03:04 -7.34043 -61.45841 35006 ft 504 kts
2026-05-05 03:05 -7.27098 -61.44888 35006 ft 503 kts
2026-05-05 03:05 -7.20155 -61.43936 35007 ft 503 kts
2026-05-05 03:06 -7.13220 -61.42986 35007 ft 503 kts
2026-05-05 03:06 -7.06289 -61.42036 35004 ft 503 kts
2026-05-05 03:07 -6.99360 -61.41087 34999 ft 502 kts
2026-05-05 03:07 -6.92431 -61.40138 35002 ft 503 kts
2026-05-05 03:08 -6.85543 -61.39195 35004 ft 503 kts
2026-05-05 03:08 -6.78604 -61.38246 35004 ft 503 kts
2026-05-05 03:09 -6.71663 -61.37296 35004 ft 503 kts
2026-05-05 03:09 -6.64724 -61.36347 35000 ft 503 kts
2026-05-05 03:10 -6.57781 -61.35398 35001 ft 503 kts
2026-05-05 03:10 -6.50838 -61.34449 35003 ft 503 kts
2026-05-05 03:11 -6.43937 -61.33506 35000 ft 503 kts
2026-05-05 03:11 -6.37000 -61.32559 35003 ft 503 kts
2026-05-05 03:12 -6.30066 -61.31612 35003 ft 503 kts
2026-05-05 03:12 -6.23132 -61.30665 34997 ft 503 kts
2026-05-05 03:13 -6.16190 -61.29717 35008 ft 502 kts
2026-05-05 03:13 -6.09265 -61.28772 35003 ft 502 kts
2026-05-05 03:14 -6.02363 -61.27752 35006 ft 501 kts 13°
2026-05-05 03:14 -5.95620 -61.26022 35006 ft 500 kts 16°
2026-05-05 03:15 -5.88917 -61.24148 35009 ft 500 kts 16°
2026-05-05 03:15 -5.82224 -61.22255 34999 ft 500 kts 16°
2026-05-05 03:16 -5.75525 -61.20372 35001 ft 500 kts 16°
2026-05-05 03:16 -5.68863 -61.18509 35000 ft 501 kts 16°
2026-05-05 03:17 -5.62144 -61.16632 35003 ft 501 kts 16°
2026-05-05 03:17 -5.55420 -61.14754 35002 ft 501 kts 16°
2026-05-05 03:18 -5.48686 -61.12873 35004 ft 502 kts 16°
2026-05-05 03:18 -5.41962 -61.10996 35000 ft 502 kts 16°
2026-05-05 03:19 -5.31865 -61.08177 34997 ft 502 kts 16°
2026-05-05 03:19 -5.25136 -61.06299 34997 ft 502 kts 16°
2026-05-05 03:20 -5.18410 -61.04422 35006 ft 502 kts 16°
2026-05-05 03:20 -5.11720 -61.02556 34998 ft 502 kts 16°
2026-05-05 03:21 -5.04984 -61.00677 35010 ft 502 kts 16°
2026-05-05 03:21 -4.98256 -60.98801 35000 ft 501 kts 16°
2026-05-05 03:22 -4.91526 -60.96925 34995 ft 501 kts 16°
2026-05-05 03:22 -4.84814 -60.95054 35000 ft 501 kts 16°
2026-05-05 03:23 -4.78095 -60.93181 35000 ft 500 kts 16°
2026-05-05 03:23 -4.71390 -60.91313 34999 ft 500 kts 16°
2026-05-05 03:24 -4.64721 -60.89455 35002 ft 501 kts 16°
2026-05-05 03:24 -4.58001 -60.87584 35000 ft 501 kts 16°
2026-05-05 03:25 -4.51276 -60.85711 34995 ft 501 kts 16°
2026-05-05 03:25 -4.44548 -60.83838 34995 ft 502 kts 16°
2026-05-05 03:26 -4.37815 -60.81964 35003 ft 502 kts 16°
2026-05-05 03:26 -4.31088 -60.80092 34996 ft 502 kts 17°
2026-05-05 03:27 -4.24353 -60.78218 34996 ft 502 kts 17°
2026-05-05 03:27 -4.17624 -60.76346 34995 ft 502 kts 17°
2026-05-05 03:28 -4.10883 -60.74471 34999 ft 503 kts 17°
2026-05-05 03:28 -4.04145 -60.72597 35001 ft 503 kts 17°
2026-05-05 03:29 -3.97445 -60.70734 34993 ft 503 kts 17°
2026-05-05 03:29 -3.90706 -60.68861 34995 ft 503 kts 17°
2026-05-05 03:30 -3.83969 -60.66988 34997 ft 502 kts 17°
2026-05-05 03:30 -3.77230 -60.65115 34999 ft 502 kts 17°
2026-05-05 03:31 -3.70492 -60.63243 34992 ft 502 kts 17°
2026-05-05 03:31 -3.63760 -60.61372 34991 ft 502 kts 17°
2026-05-05 03:32 -3.57022 -60.59500 34992 ft 502 kts 17°
2026-05-05 03:32 -3.50288 -60.57630 34997 ft 502 kts 16°
2026-05-05 03:33 -3.43554 -60.55760 34994 ft 502 kts 16°
2026-05-05 03:33 -3.36861 -60.53902 34992 ft 502 kts 16°
2026-05-05 03:34 -3.30130 -60.52033 34996 ft 502 kts 16°
2026-05-05 03:34 -3.23395 -60.50164 34994 ft 502 kts 16°
2026-05-05 03:35 -3.16654 -60.48293 34994 ft 502 kts 16°
2026-05-05 03:35 -3.09924 -60.46425 34994 ft 502 kts 16°
2026-05-05 03:36 -3.03188 -60.44557 34988 ft 502 kts 16°
2026-05-05 03:36 -2.96455 -60.42689 34991 ft 502 kts 16°
2026-05-05 03:37 -2.89718 -60.40820 34996 ft 502 kts 16°
2026-05-05 03:37 -2.82983 -60.38952 34992 ft 502 kts 16°
2026-05-05 03:38 -2.76293 -60.37097 34989 ft 502 kts 16°
2026-05-05 03:38 -2.69564 -60.35231 34995 ft 502 kts 16°
2026-05-05 03:39 -2.62835 -60.33365 34994 ft 502 kts 16°
2026-05-05 03:39 -2.56098 -60.31498 34995 ft 502 kts 16°
2026-05-05 03:40 -2.49363 -60.29631 34994 ft 502 kts 16°
2026-05-05 03:40 -2.42633 -60.27765 34992 ft 502 kts 16°
2026-05-05 03:41 -2.35901 -60.25899 34992 ft 502 kts 16°
2026-05-05 03:41 -2.29165 -60.24033 34993 ft 502 kts 16°
2026-05-05 03:42 -2.22427 -60.22166 34988 ft 502 kts 16°
2026-05-05 03:42 -2.15693 -60.20300 34988 ft 502 kts 16°
2026-05-05 03:43 -2.10093 -60.18748 34987 ft 502 kts 16°
2026-05-05 03:43 -2.02252 -60.16577 34988 ft 502 kts 16°
2026-05-05 03:44 -1.95512 -60.14710 34993 ft 502 kts 16°
2026-05-05 03:44 -1.89867 -60.13147 34993 ft 503 kts 16°
2026-05-05 03:45 -1.83164 -60.11290 34990 ft 503 kts 16°
2026-05-05 03:45 -1.76421 -60.09423 34986 ft 503 kts 16°
2026-05-05 03:46 -1.69674 -60.07554 34986 ft 502 kts 16°
2026-05-05 03:46 -1.62934 -60.05689 34990 ft 502 kts 16°
2026-05-05 03:47 -1.56193 -60.03822 34987 ft 502 kts 16°
2026-05-05 03:47 -1.49452 -60.01956 34985 ft 502 kts 16°
2026-05-05 03:48 -1.42752 -60.00102 34982 ft 502 kts 16°
2026-05-05 03:48 -1.36010 -59.98235 34980 ft 503 kts 16°
2026-05-05 03:49 -1.29264 -59.96368 34983 ft 503 kts 16°
2026-05-05 03:49 -1.22515 -59.94500 34983 ft 503 kts 16°
2026-05-05 03:50 -1.15759 -59.92630 34983 ft 504 kts 16°
2026-05-05 03:50 -1.09005 -59.90761 34984 ft 504 kts 16°
2026-05-05 03:51 -1.02238 -59.88888 34983 ft 505 kts 16°
2026-05-05 03:51 -0.95461 -59.87013 34983 ft 505 kts 16°
2026-05-05 03:52 -0.88734 -59.85151 34989 ft 505 kts 16°
2026-05-05 03:52 -0.81948 -59.83274 34986 ft 505 kts 16°
2026-05-05 03:53 -0.75162 -59.81397 34989 ft 506 kts 16°
2026-05-05 03:53 -0.68382 -59.79521 34983 ft 506 kts 16°
2026-05-05 03:54 -0.61589 -59.77641 34985 ft 506 kts 16°
2026-05-05 03:54 -0.54811 -59.75766 34983 ft 506 kts 16°
2026-05-05 03:55 -0.48029 -59.73889 34979 ft 505 kts 16°
2026-05-05 03:55 -0.41256 -59.72015 34981 ft 505 kts 16°
2026-05-05 03:56 -0.34521 -59.70152 34980 ft 505 kts 16°
2026-05-05 03:56 -0.27741 -59.68276 34979 ft 505 kts 16°
2026-05-05 03:57 -0.20965 -59.66402 34978 ft 505 kts 16°
2026-05-05 03:57 -0.14190 -59.64528 34980 ft 505 kts 16°
2026-05-05 03:58 -0.07422 -59.62655 34980 ft 505 kts 16°
2026-05-05 03:58 -0.00655 -59.60783 34978 ft 504 kts 16°
2026-05-05 03:59 0.06112 -59.58911 34980 ft 504 kts 16°
2026-05-05 03:59 0.12834 -59.57052 34979 ft 504 kts 16°
2026-05-05 04:00 0.19595 -59.55182 34974 ft 504 kts 16°
2026-05-05 04:00 0.26357 -59.53312 34980 ft 504 kts 16°
2026-05-05 04:01 0.33109 -59.51444 34984 ft 503 kts 17°
2026-05-05 04:01 0.39856 -59.49577 34978 ft 503 kts 17°
2026-05-05 04:02 0.46602 -59.47710 34975 ft 503 kts 16°
2026-05-05 04:02 0.53355 -59.45842 34974 ft 503 kts 16°
2026-05-05 04:03 0.60103 -59.43975 34971 ft 503 kts 16°
2026-05-05 04:03 0.66813 -59.42118 34970 ft 503 kts 16°
2026-05-05 04:04 0.73564 -59.40250 34976 ft 503 kts 16°
2026-05-05 04:04 0.80329 -59.38379 34976 ft 504 kts 16°
2026-05-05 04:05 0.87082 -59.36510 34974 ft 504 kts 16°
2026-05-05 04:05 0.93838 -59.34640 34975 ft 504 kts 16°
2026-05-05 04:06 1.00596 -59.32770 34972 ft 504 kts 16°
2026-05-05 04:06 1.07315 -59.30911 34973 ft 504 kts 16°
2026-05-05 04:07 1.14077 -59.29040 34977 ft 504 kts 16°
2026-05-05 04:07 1.20845 -59.27167 34980 ft 504 kts 16°
2026-05-05 04:08 1.27608 -59.25295 34983 ft 504 kts 16°
2026-05-05 04:08 1.34377 -59.23421 34981 ft 504 kts 16°
2026-05-05 04:09 1.41173 -59.21659 34985 ft 505 kts 12°
2026-05-05 04:09 1.48052 -59.20417 34983 ft 505 kts 10°
2026-05-05 04:10 1.54988 -59.19240 34983 ft 506 kts 11°
2026-05-05 04:10 1.61914 -59.17985 34983 ft 506 kts 11°
2026-05-05 04:11 1.68840 -59.16681 34984 ft 506 kts 11°
2026-05-05 04:11 1.75753 -59.15369 34982 ft 506 kts 11°
2026-05-05 04:12 1.82675 -59.14058 34980 ft 506 kts 12°
2026-05-05 04:12 1.89560 -59.12756 34983 ft 506 kts 11°
2026-05-05 04:13 1.96484 -59.11448 34986 ft 506 kts 11°
2026-05-05 04:13 2.03412 -59.10138 34975 ft 507 kts 11°
2026-05-05 04:14 2.10345 -59.08828 34978 ft 507 kts 11°
2026-05-05 04:14 2.17292 -59.07515 34974 ft 508 kts 11°
2026-05-05 04:15 2.24242 -59.06201 34976 ft 508 kts 11°
2026-05-05 04:15 2.31150 -59.04895 34978 ft 508 kts 11°
2026-05-05 04:16 2.38103 -59.03580 34978 ft 509 kts 11°
2026-05-05 04:16 2.45057 -59.02265 34971 ft 509 kts 11°
2026-05-05 04:17 2.52014 -59.00949 34971 ft 509 kts 11°
2026-05-05 04:17 2.58978 -58.99632 34977 ft 509 kts 11°
2026-05-05 04:18 2.65944 -58.98314 34974 ft 509 kts 11°
2026-05-05 04:18 2.72908 -58.96997 34977 ft 509 kts 11°
2026-05-05 04:19 2.79824 -58.95688 34976 ft 509 kts 11°
2026-05-05 04:19 2.86781 -58.94372 34982 ft 509 kts 11°
2026-05-05 04:20 2.93742 -58.93054 34977 ft 509 kts 11°
2026-05-05 04:20 3.00700 -58.91737 34979 ft 509 kts 11°
2026-05-05 04:21 3.07665 -58.90419 34980 ft 509 kts 11°
2026-05-05 04:21 3.14632 -58.89100 34982 ft 509 kts 11°
2026-05-05 04:22 3.21557 -58.87788 34983 ft 510 kts 11°
2026-05-05 04:22 3.28538 -58.86467 34983 ft 510 kts 11°
2026-05-05 04:23 3.35514 -58.85145 34984 ft 510 kts 11°
2026-05-05 04:23 3.42483 -58.83825 34981 ft 509 kts 11°
2026-05-05 04:24 3.49446 -58.82506 34980 ft 509 kts 11°
2026-05-05 04:25 3.59898 -58.80525 34979 ft 509 kts 11°
2026-05-05 04:25 3.66857 -58.79206 34981 ft 509 kts 11°
2026-05-05 04:26 3.73828 -58.77885 34982 ft 509 kts 10°
2026-05-05 04:26 3.80786 -58.76566 34981 ft 509 kts 10°
2026-05-05 04:27 3.87743 -58.75247 34983 ft 509 kts 10°
2026-05-05 04:27 3.94649 -58.73937 34983 ft 509 kts 10°
2026-05-05 04:28 4.01612 -58.72626 34983 ft 509 kts 10°
2026-05-05 04:28 4.08569 -58.71314 34984 ft 509 kts 10°
2026-05-05 04:29 4.15530 -58.70000 34986 ft 508 kts 10°
2026-05-05 04:29 4.22473 -58.68689 34981 ft 508 kts 10°
2026-05-05 04:30 4.29433 -58.67374 34985 ft 508 kts 10°
2026-05-05 04:30 4.36386 -58.66060 34987 ft 508 kts 10°
2026-05-05 04:31 4.43332 -58.64747 34988 ft 508 kts 10°
2026-05-05 04:31 4.50272 -58.63435 34987 ft 508 kts 10°
2026-05-05 04:32 4.57173 -58.62131 34989 ft 508 kts 10°
2026-05-05 04:32 4.64112 -58.60818 34989 ft 508 kts
2026-05-05 04:33 4.71058 -58.59505 34989 ft 508 kts
2026-05-05 04:33 4.77997 -58.58192 34987 ft 507 kts
2026-05-05 04:34 4.84938 -58.56879 34987 ft 507 kts
2026-05-05 04:34 4.91868 -58.55567 34991 ft 507 kts
2026-05-05 04:35 4.98796 -58.54255 34990 ft 507 kts
2026-05-05 04:35 5.04554 -58.53165 34992 ft 506 kts
2026-05-05 04:36 5.11477 -58.51854 34991 ft 506 kts
2026-05-05 04:36 5.18414 -58.50541 34989 ft 506 kts
2026-05-05 04:37 5.25338 -58.49229 34989 ft 507 kts
2026-05-05 04:37 5.32225 -58.47923 34989 ft 507 kts
2026-05-05 04:38 5.39154 -58.46610 34991 ft 507 kts
2026-05-05 04:38 5.46093 -58.45294 34990 ft 507 kts
2026-05-05 04:39 5.53025 -58.43980 34986 ft 507 kts
2026-05-05 04:39 5.59957 -58.42665 34988 ft 507 kts
2026-05-05 04:40 5.66903 -58.41360 34989 ft 507 kts
2026-05-05 04:40 5.73806 -58.40081 34983 ft 508 kts
2026-05-05 04:41 5.80759 -58.38795 34985 ft 508 kts
2026-05-05 04:41 5.87716 -58.37505 34986 ft 508 kts
2026-05-05 04:42 5.94658 -58.36216 34981 ft 507 kts
2026-05-05 04:42 6.01606 -58.34925 34984 ft 507 kts
2026-05-05 04:43 6.08498 -58.33644 34982 ft 507 kts
2026-05-05 04:43 6.15445 -58.32353 34982 ft 507 kts
2026-05-05 04:44 6.22384 -58.31063 34984 ft 507 kts
2026-05-05 04:44 6.29324 -58.29773 34989 ft 507 kts
2026-05-05 04:45 6.36267 -58.28482 34992 ft 507 kts
2026-05-05 04:45 6.43215 -58.27188 34993 ft 507 kts
2026-05-05 04:46 6.49908 -58.24946 34990 ft 510 kts 27°
2026-05-05 04:46 6.55676 -58.20828 34993 ft 510 kts 39°
2026-05-05 04:47 6.61051 -58.16149 34990 ft 511 kts 40°
2026-05-05 04:47 6.66345 -58.11437 34987 ft 511 kts 40°
2026-05-05 04:48 6.71706 -58.06705 34985 ft 512 kts 40°
2026-05-05 04:48 6.77079 -58.01997 34985 ft 512 kts 40°
2026-05-05 04:49 6.82456 -57.97293 34983 ft 512 kts 40°
2026-05-05 04:49 6.87835 -57.92584 34987 ft 513 kts 40°
2026-05-05 04:50 6.93220 -57.87867 34985 ft 513 kts 40°
2026-05-05 04:50 6.98613 -57.83141 34989 ft 514 kts 39°
2026-05-05 04:51 7.03978 -57.78438 34988 ft 515 kts 39°
2026-05-05 04:51 7.09378 -57.73703 34986 ft 515 kts 39°
2026-05-05 04:52 7.14785 -57.68961 34984 ft 516 kts 39°
2026-05-05 04:52 7.20208 -57.64203 34987 ft 516 kts 39°
2026-05-05 04:53 7.25620 -57.59452 34986 ft 516 kts 39°
2026-05-05 04:53 7.31037 -57.54696 34989 ft 516 kts 39°
2026-05-05 04:54 7.36447 -57.49945 34986 ft 516 kts 39°
2026-05-05 04:54 7.41867 -57.45213 34990 ft 515 kts 39°
2026-05-05 04:55 7.47292 -57.40489 34989 ft 515 kts 38°
2026-05-05 04:55 7.52718 -57.35760 34987 ft 515 kts 38°
2026-05-05 04:56 7.58140 -57.31030 34987 ft 515 kts 38°
2026-05-05 04:56 7.63521 -57.26332 34985 ft 515 kts 38°
2026-05-05 04:57 7.68936 -57.21602 34986 ft 515 kts 38°
2026-05-05 04:57 7.74343 -57.16878 34986 ft 514 kts 38°
2026-05-05 04:58 7.79756 -57.12148 34986 ft 514 kts 38°
2026-05-05 04:58 7.85158 -57.07426 34984 ft 514 kts 38°
2026-05-05 04:59 7.90538 -57.02721 34986 ft 514 kts 38°
2026-05-05 04:59 7.95953 -56.97986 34985 ft 514 kts 38°
2026-05-05 05:00 8.01362 -56.93253 34986 ft 515 kts 38°
2026-05-05 05:00 8.06772 -56.88515 34986 ft 515 kts 38°
2026-05-05 05:01 8.12185 -56.83775 34993 ft 515 kts 38°
2026-05-05 05:01 8.17591 -56.79038 34988 ft 515 kts 38°
2026-05-05 05:02 8.23004 -56.74295 34986 ft 515 kts 38°
2026-05-05 05:02 8.28410 -56.69556 34986 ft 515 kts 38°
2026-05-05 05:03 8.33789 -56.64838 34989 ft 515 kts 38°
2026-05-05 05:03 8.39200 -56.60090 34992 ft 515 kts 38°
2026-05-05 05:04 8.44608 -56.55344 34992 ft 515 kts 38°
2026-05-05 05:04 8.50033 -56.50581 34992 ft 515 kts 38°
2026-05-05 05:05 8.55443 -56.45829 34991 ft 515 kts 38°
2026-05-05 05:05 8.60847 -56.41080 34990 ft 515 kts 38°
2026-05-05 05:06 8.66255 -56.36326 34986 ft 515 kts 38°
2026-05-05 05:06 8.71628 -56.31601 34992 ft 515 kts 38°
2026-05-05 05:07 8.77027 -56.26852 34991 ft 515 kts 38°
2026-05-05 05:07 8.82429 -56.22097 34990 ft 515 kts 38°
2026-05-05 05:08 8.87825 -56.17347 34990 ft 515 kts 38°
2026-05-05 05:08 8.93224 -56.12591 34995 ft 515 kts 38°
2026-05-05 05:09 8.98630 -56.07827 34994 ft 514 kts 38°
2026-05-05 05:09 9.03989 -56.03103 34991 ft 514 kts 38°
2026-05-05 05:10 9.09530 -55.98547 34995 ft 511 kts 31°
2026-05-05 05:10 9.15454 -55.94597 34990 ft 510 kts 29°
2026-05-05 05:11 9.21443 -55.90742 34994 ft 510 kts 29°
2026-05-05 05:11 9.27434 -55.86896 34992 ft 510 kts 29°
2026-05-05 05:12 9.33416 -55.83039 34990 ft 509 kts 29°
2026-05-05 05:12 9.39394 -55.79175 34995 ft 509 kts 30°
2026-05-05 05:13 9.45361 -55.75315 34996 ft 509 kts 30°
2026-05-05 05:13 9.51325 -55.71455 35000 ft 508 kts 30°
2026-05-05 05:14 9.57250 -55.67620 34998 ft 508 kts 30°
2026-05-05 05:14 9.63200 -55.63767 34998 ft 508 kts 30°
2026-05-05 05:15 9.69158 -55.59907 34999 ft 507 kts 30°
2026-05-05 05:15 9.75111 -55.56049 34999 ft 507 kts 30°
2026-05-05 05:16 9.81050 -55.52197 35004 ft 506 kts 30°
2026-05-05 05:16 9.86941 -55.48375 35006 ft 506 kts 30°
2026-05-05 05:17 9.92863 -55.44531 35000 ft 505 kts 30°
2026-05-05 05:17 9.98772 -55.40694 35004 ft 504 kts 30°
2026-05-05 05:18 10.04670 -55.36863 35002 ft 503 kts 30°
2026-05-05 05:18 10.10560 -55.33036 35005 ft 502 kts 30°
2026-05-05 05:19 10.16442 -55.29211 35006 ft 502 kts 30°
2026-05-05 05:19 10.22319 -55.25390 35004 ft 501 kts 30°
2026-05-05 05:20 10.28187 -55.21571 35006 ft 501 kts 30°
2026-05-05 05:20 10.34045 -55.17758 35009 ft 500 kts 30°
2026-05-05 05:21 10.39869 -55.13965 35010 ft 500 kts 30°
2026-05-05 05:21 10.45716 -55.10153 35007 ft 499 kts 30°
2026-05-05 05:22 10.51558 -55.06347 35012 ft 499 kts 30°
2026-05-05 05:22 10.57407 -55.02533 35011 ft 499 kts 30°
2026-05-05 05:23 10.63239 -54.98724 35015 ft 498 kts 30°
2026-05-05 05:23 10.69075 -54.94914 35015 ft 498 kts 30°
2026-05-05 05:24 10.74902 -54.91113 35016 ft 498 kts 30°
2026-05-05 05:24 10.80734 -54.87303 35015 ft 498 kts 30°
2026-05-05 05:25 10.86558 -54.83497 35018 ft 497 kts 30°
2026-05-05 05:25 10.92342 -54.79718 35017 ft 497 kts 30°
2026-05-05 05:26 10.98162 -54.75907 35017 ft 497 kts 30°
2026-05-05 05:26 11.03976 -54.72100 35016 ft 497 kts 30°
2026-05-05 05:27 11.09786 -54.68290 35015 ft 496 kts 30°
2026-05-05 05:27 11.17519 -54.63222 35010 ft 496 kts 31°
2026-05-05 05:28 11.24265 -54.58803 35029 ft 496 kts 31°
2026-05-05 05:28 11.30063 -54.54999 35029 ft 495 kts 31°
2026-05-05 05:29 11.34877 -54.51841 35025 ft 495 kts 31°
2026-05-05 05:29 11.40669 -54.48040 35031 ft 495 kts 31°
2026-05-05 05:30 11.46445 -54.44247 35021 ft 494 kts 31°
2026-05-05 05:30 11.52231 -54.40442 35039 ft 494 kts 31°
2026-05-05 05:31 11.58001 -54.36645 35026 ft 494 kts 31°
2026-05-05 05:31 11.63770 -54.32847 35028 ft 493 kts 31°
2026-05-05 05:32 11.69540 -54.29049 35025 ft 493 kts 31°
2026-05-05 05:32 11.75298 -54.25256 35026 ft 492 kts 31°
2026-05-05 05:33 11.81016 -54.21492 35025 ft 492 kts 31°
2026-05-05 05:33 11.86764 -54.17703 35028 ft 492 kts 31°
2026-05-05 05:34 11.92511 -54.13911 35027 ft 491 kts 31°
2026-05-05 05:34 11.98259 -54.10120 35026 ft 491 kts 31°
2026-05-05 05:35 12.03994 -54.06334 35026 ft 490 kts 31°
2026-05-05 05:35 12.09722 -54.02550 35027 ft 490 kts 31°
2026-05-05 05:36 12.15442 -53.98769 35032 ft 489 kts 31°
2026-05-05 05:36 12.21155 -53.94991 35031 ft 489 kts 31°
2026-05-05 05:37 12.26823 -53.91239 35031 ft 488 kts 31°
2026-05-05 05:37 12.32523 -53.87466 35028 ft 488 kts 31°
2026-05-05 05:38 12.38224 -53.83689 35029 ft 488 kts 31°
2026-05-05 05:38 12.43923 -53.79913 35033 ft 488 kts 31°
2026-05-05 05:39 12.49617 -53.76139 35032 ft 487 kts 31°
2026-05-05 05:39 12.55308 -53.72364 35033 ft 487 kts 31°
2026-05-05 05:40 12.61007 -53.68581 35033 ft 488 kts 31°
2026-05-05 05:40 12.66694 -53.64804 35035 ft 488 kts 31°
2026-05-05 05:41 12.72387 -53.61021 35033 ft 488 kts 31°
2026-05-05 05:41 12.78076 -53.57240 35034 ft 488 kts 31°
2026-05-05 05:42 12.83775 -53.53450 35037 ft 488 kts 31°
2026-05-05 05:42 12.89425 -53.49688 35035 ft 488 kts 31°
2026-05-05 05:43 12.95115 -53.45898 35034 ft 488 kts 31°
2026-05-05 05:43 13.00803 -53.42109 35034 ft 487 kts 31°
2026-05-05 05:44 13.06488 -53.38318 35038 ft 487 kts 31°
2026-05-05 05:44 13.12169 -53.34529 35038 ft 487 kts 31°
2026-05-05 05:45 13.17846 -53.30742 35039 ft 486 kts 31°
2026-05-05 05:45 13.23517 -53.26955 35037 ft 486 kts 31°
2026-05-05 05:46 13.29147 -53.23193 35039 ft 485 kts 32°
2026-05-05 05:46 13.34804 -53.19411 35039 ft 485 kts 32°
2026-05-05 05:47 13.40458 -53.15630 35037 ft 485 kts 32°
2026-05-05 05:47 13.46101 -53.11853 35038 ft 484 kts 32°
2026-05-05 05:48 13.51746 -53.08073 35039 ft 484 kts 32°
2026-05-05 05:48 13.57383 -53.04296 35046 ft 484 kts 32°
2026-05-05 05:49 13.63016 -53.00519 35040 ft 483 kts 32°
2026-05-05 05:49 13.68647 -52.96742 35040 ft 483 kts 32°
2026-05-05 05:50 13.74271 -52.92968 35039 ft 483 kts 32°
2026-05-05 05:50 13.79893 -52.89192 35043 ft 482 kts 32°
2026-05-05 05:51 13.85506 -52.85420 35045 ft 482 kts 32°
2026-05-05 05:51 13.91079 -52.81673 35049 ft 481 kts 32°
2026-05-05 05:52 13.96727 -52.77873 35051 ft 481 kts 32°
2026-05-05 05:52 14.02291 -52.74128 35049 ft 481 kts 32°
2026-05-05 05:53 14.07890 -52.70356 35047 ft 481 kts 32°
2026-05-05 05:53 14.13490 -52.66582 35047 ft 481 kts 32°
2026-05-05 05:54 14.19087 -52.62807 35047 ft 480 kts 32°
2026-05-05 05:54 14.24676 -52.59036 35051 ft 480 kts 32°
2026-05-05 05:55 14.30278 -52.55254 35049 ft 480 kts 32°
2026-05-05 05:55 14.35865 -52.51479 35052 ft 480 kts 32°
2026-05-05 05:56 14.41448 -52.47705 35052 ft 480 kts 32°
2026-05-05 05:56 14.47036 -52.43925 35054 ft 480 kts 32°
2026-05-05 05:57 14.52617 -52.40148 35053 ft 479 kts 32°
2026-05-05 05:57 14.58157 -52.36396 35058 ft 479 kts 32°
2026-05-05 05:58 14.63732 -52.32618 35058 ft 479 kts 32°
2026-05-05 05:58 14.69308 -52.28837 35057 ft 479 kts 32°
2026-05-05 05:59 14.74882 -52.25056 35059 ft 479 kts 32°
2026-05-05 05:59 14.80452 -52.21274 35057 ft 479 kts 32°
2026-05-05 06:00 14.86014 -52.17495 35053 ft 479 kts 32°
2026-05-05 06:00 14.91571 -52.13718 35063 ft 478 kts 32°
2026-05-05 06:01 14.97141 -52.09929 35060 ft 478 kts 32°
2026-05-05 06:01 15.02694 -52.06150 35062 ft 478 kts 32°
2026-05-05 06:02 15.08246 -52.02369 35064 ft 477 kts 32°
2026-05-05 06:02 15.13795 -51.98587 35064 ft 477 kts 32°
2026-05-05 06:03 15.19307 -51.94829 35063 ft 477 kts 32°
2026-05-05 06:03 15.24854 -51.91044 35061 ft 477 kts 32°
2026-05-05 06:04 15.30391 -51.87263 35063 ft 477 kts 32°
2026-05-05 06:04 15.35928 -51.83480 35063 ft 476 kts 32°
2026-05-05 06:05 15.41459 -51.79699 35070 ft 476 kts 32°
2026-05-05 06:05 15.46984 -51.75919 35067 ft 476 kts 32°
2026-05-05 06:06 15.52510 -51.72136 35069 ft 476 kts 32°
2026-05-05 06:06 15.58032 -51.68354 35058 ft 475 kts 32°
2026-05-05 06:07 15.63512 -51.64598 35075 ft 475 kts 32°
2026-05-05 06:07 15.69022 -51.60818 35067 ft 474 kts 32°
2026-05-05 06:08 15.74523 -51.57042 35070 ft 474 kts 32°
2026-05-05 06:08 15.80024 -51.53265 35062 ft 474 kts 33°
2026-05-05 06:09 15.85523 -51.49485 35073 ft 473 kts 33°
2026-05-05 06:09 15.91017 -51.45707 35073 ft 473 kts 33°
2026-05-05 06:10 15.96495 -51.41937 35070 ft 472 kts 33°
2026-05-05 06:10 16.01943 -51.38186 35076 ft 472 kts 33°
2026-05-05 06:11 16.07417 -51.34414 35078 ft 472 kts 33°
2026-05-05 06:11 16.12880 -51.30646 35081 ft 471 kts 33°
2026-05-05 06:12 16.18339 -51.26880 35074 ft 471 kts 33°
2026-05-05 06:12 16.23799 -51.23110 35080 ft 471 kts 33°
2026-05-05 06:13 16.29255 -51.19340 35083 ft 470 kts 33°
2026-05-05 06:13 16.34707 -51.15571 35082 ft 470 kts 33°
2026-05-05 06:14 16.40149 -51.11806 35072 ft 470 kts 33°
2026-05-05 06:14 16.45592 -51.08037 35076 ft 469 kts 33°
2026-05-05 06:15 16.51030 -51.04270 35073 ft 469 kts 33°
2026-05-05 06:15 16.56435 -51.00522 35076 ft 469 kts 33°
2026-05-05 06:16 16.61868 -50.96753 35083 ft 469 kts 33°
2026-05-05 06:16 16.67298 -50.92983 35082 ft 468 kts 33°
2026-05-05 06:17 16.72719 -50.89217 35088 ft 468 kts 33°
2026-05-05 06:17 16.78140 -50.85448 35096 ft 468 kts 33°
2026-05-05 06:18 16.83557 -50.81680 35083 ft 467 kts 33°
2026-05-05 06:18 16.88961 -50.77917 35078 ft 467 kts 33°
2026-05-05 06:19 16.93457 -50.74785 35084 ft 467 kts 33°
2026-05-05 06:19 16.98861 -50.71018 35084 ft 466 kts 33°
2026-05-05 06:20 17.04260 -50.67252 35087 ft 466 kts 33°
2026-05-05 06:20 17.09647 -50.63491 35086 ft 466 kts 33°
2026-05-05 06:21 17.15040 -50.59724 35087 ft 466 kts 33°
2026-05-05 06:21 17.20419 -50.55964 35085 ft 465 kts 33°
2026-05-05 06:22 17.25762 -50.52226 35087 ft 465 kts 33°
2026-05-05 06:22 17.31137 -50.48463 35084 ft 465 kts 33°
2026-05-05 06:23 17.36511 -50.44699 35086 ft 464 kts 33°
2026-05-05 06:23 17.41879 -50.40935 35086 ft 464 kts 34°
2026-05-05 06:24 17.47244 -50.37171 35090 ft 464 kts 34°
2026-05-05 06:24 17.52605 -50.33408 35089 ft 464 kts 34°
2026-05-05 06:25 17.57962 -50.29644 35088 ft 463 kts 34°
2026-05-05 06:25 17.63315 -50.25880 35087 ft 463 kts 34°
2026-05-05 06:26 17.68664 -50.22117 35090 ft 463 kts 34°
2026-05-05 06:26 17.73972 -50.18379 35088 ft 462 kts 34°
2026-05-05 06:27 17.81983 -50.12734 35091 ft 462 kts 34°
2026-05-05 06:28 17.87319 -50.08969 35092 ft 462 kts 34°
2026-05-05 06:28 17.92655 -50.05202 35092 ft 462 kts 34°
2026-05-05 06:29 17.97982 -50.01436 35091 ft 461 kts 34°
2026-05-05 06:29 18.02887 -49.97092 35095 ft 461 kts 43°
2026-05-05 06:30 18.07531 -49.92436 35093 ft 461 kts 44°
2026-05-05 06:30 18.12104 -49.87767 35100 ft 461 kts 44°
2026-05-05 06:31 18.16705 -49.83074 35098 ft 461 kts 44°
2026-05-05 06:31 18.21319 -49.78380 35098 ft 461 kts 44°
2026-05-05 06:32 18.25931 -49.73690 35100 ft 461 kts 44°
2026-05-05 06:32 18.30539 -49.69002 35097 ft 461 kts 44°
2026-05-05 06:33 18.35149 -49.64307 35098 ft 461 kts 44°
2026-05-05 06:33 18.39729 -49.59639 35096 ft 461 kts 44°
2026-05-05 06:34 18.44334 -49.54942 35097 ft 461 kts 44°
2026-05-05 06:34 18.48937 -49.50242 35096 ft 461 kts 44°
2026-05-05 06:35 18.53545 -49.45535 35098 ft 461 kts 44°
2026-05-05 06:35 18.58146 -49.40830 35099 ft 461 kts 44°
2026-05-05 06:36 18.62750 -49.36119 35099 ft 461 kts 44°
2026-05-05 06:36 18.67354 -49.31404 35101 ft 461 kts 44°
2026-05-05 06:37 18.71952 -49.26691 35102 ft 461 kts 44°
2026-05-05 06:37 18.76516 -49.22010 35099 ft 461 kts 43°
2026-05-05 06:38 18.81119 -49.17284 35104 ft 461 kts 43°
2026-05-05 06:38 18.85716 -49.12561 35105 ft 461 kts 43°
2026-05-05 06:39 18.90312 -49.07835 35102 ft 461 kts 43°
2026-05-05 06:39 18.94909 -49.03105 35099 ft 461 kts 43°
2026-05-05 06:40 18.99501 -48.98375 35100 ft 461 kts 43°
2026-05-05 06:40 19.04095 -48.93641 35101 ft 461 kts 43°
2026-05-05 06:41 19.08656 -48.88935 35102 ft 461 kts 43°
2026-05-05 06:41 19.13247 -48.84195 35105 ft 461 kts 43°
2026-05-05 06:42 19.17837 -48.79453 35106 ft 461 kts 43°
2026-05-05 06:42 19.22425 -48.74709 35102 ft 461 kts 43°
2026-05-05 06:43 19.27015 -48.69958 35104 ft 461 kts 43°
2026-05-05 06:43 19.31604 -48.65204 35107 ft 461 kts 43°
2026-05-05 06:44 19.36182 -48.60458 35109 ft 461 kts 43°
2026-05-05 06:44 19.40731 -48.55738 35112 ft 461 kts 43°
2026-05-05 06:45 19.45312 -48.50982 35110 ft 461 kts 43°
2026-05-05 06:45 19.49895 -48.46219 35107 ft 461 kts 43°
2026-05-05 06:46 19.54473 -48.41457 35107 ft 461 kts 43°
2026-05-05 06:46 19.59051 -48.36692 35111 ft 461 kts 43°
2026-05-05 06:47 19.63624 -48.31927 35115 ft 461 kts 43°
2026-05-05 06:47 19.68168 -48.27189 35110 ft 461 kts 43°
2026-05-05 06:48 19.72746 -48.22411 35112 ft 461 kts 43°
2026-05-05 06:48 19.77319 -48.17634 35111 ft 461 kts 43°
2026-05-05 06:49 19.81889 -48.12857 35114 ft 461 kts 43°
2026-05-05 06:49 19.86461 -48.08073 35115 ft 461 kts 43°
2026-05-05 06:50 19.91030 -48.03288 35114 ft 461 kts 43°
2026-05-05 06:50 19.95567 -47.98533 35112 ft 461 kts 43°
2026-05-05 06:51 20.00139 -47.93737 35112 ft 461 kts 43°
2026-05-05 06:51 20.04703 -47.88945 35116 ft 461 kts 43°
2026-05-05 06:52 20.09270 -47.84146 35115 ft 461 kts 43°
2026-05-05 06:52 20.13839 -47.79341 35111 ft 461 kts 43°
2026-05-05 06:53 20.18376 -47.74565 35117 ft 461 kts 43°
2026-05-05 06:53 20.22936 -47.69761 35117 ft 461 kts 43°
2026-05-05 06:54 20.27500 -47.64948 35115 ft 461 kts 43°
2026-05-05 06:54 20.32063 -47.60132 35117 ft 461 kts 43°
2026-05-05 06:55 20.36596 -47.55344 35114 ft 462 kts 43°
2026-05-05 06:55 20.41155 -47.50524 35118 ft 462 kts 43°
2026-05-05 06:56 20.45719 -47.45695 35120 ft 462 kts 43°
2026-05-05 06:56 20.50279 -47.40865 35121 ft 462 kts 43°
2026-05-05 06:57 20.54839 -47.36031 35124 ft 462 kts 43°
2026-05-05 06:57 20.59399 -47.31194 35123 ft 462 kts 43°
2026-05-05 06:58 20.63961 -47.26348 35122 ft 462 kts 43°
2026-05-05 06:58 20.68519 -47.21504 35125 ft 462 kts 43°
2026-05-05 06:59 20.73042 -47.16691 35124 ft 462 kts 43°
2026-05-05 06:59 20.77597 -47.11842 35127 ft 462 kts 43°
2026-05-05 07:00 20.82149 -47.06990 35126 ft 462 kts 43°
2026-05-05 07:00 20.86705 -47.02130 35127 ft 462 kts 43°
2026-05-05 07:01 20.91254 -46.97272 35127 ft 462 kts 43°
2026-05-05 07:01 20.95803 -46.92411 35123 ft 462 kts 43°
2026-05-05 07:02 21.00352 -46.87545 35128 ft 462 kts 43°
2026-05-05 07:02 21.04879 -46.82699 35127 ft 463 kts 43°
2026-05-05 07:03 21.09432 -46.77820 35131 ft 463 kts 43°
2026-05-05 07:03 21.13986 -46.72936 35132 ft 463 kts 43°
2026-05-05 07:04 21.18538 -46.68048 35126 ft 463 kts 43°
2026-05-05 07:04 21.23090 -46.63157 35127 ft 463 kts 43°
2026-05-05 07:05 21.27638 -46.58265 35126 ft 463 kts 43°
2026-05-05 07:05 21.32157 -46.53401 35133 ft 463 kts 43°
2026-05-05 07:06 21.36706 -46.48499 35134 ft 464 kts 43°
2026-05-05 07:06 21.41259 -46.43588 35135 ft 464 kts 43°
2026-05-05 07:07 21.45808 -46.38677 35135 ft 464 kts 43°
2026-05-05 07:07 21.50357 -46.33761 35134 ft 464 kts 43°
2026-05-05 07:08 21.54909 -46.28837 35136 ft 464 kts 43°
2026-05-05 07:08 21.59457 -46.23913 35138 ft 464 kts 43°
2026-05-05 07:09 21.64009 -46.18980 35141 ft 464 kts 43°
2026-05-05 07:09 21.68563 -46.14041 35140 ft 465 kts 43°
2026-05-05 07:10 21.73082 -46.09134 35138 ft 465 kts 43°
2026-05-05 07:10 21.77636 -46.04185 35142 ft 465 kts 43°
2026-05-05 07:11 21.82186 -45.99236 35140 ft 465 kts 43°
2026-05-05 07:11 21.85964 -45.95122 35142 ft 465 kts 43°
2026-05-05 07:12 21.90512 -45.90166 35141 ft 465 kts 43°
2026-05-05 07:12 21.95059 -45.85207 35144 ft 465 kts 43°
2026-05-05 07:13 21.99604 -45.80244 35142 ft 465 kts 43°
2026-05-05 07:13 22.04154 -45.75272 35144 ft 465 kts 43°
2026-05-05 07:14 22.08671 -45.70330 35145 ft 465 kts 43°
2026-05-05 07:14 22.13214 -45.65355 35149 ft 465 kts 43°
2026-05-05 07:15 22.17757 -45.60376 35146 ft 465 kts 43°
2026-05-05 07:15 22.22297 -45.55396 35147 ft 465 kts 43°
2026-05-05 07:16 22.26839 -45.50406 35146 ft 465 kts 43°
2026-05-05 07:16 22.31381 -45.45414 35145 ft 465 kts 43°
2026-05-05 07:17 22.35917 -45.40422 35145 ft 466 kts 43°
2026-05-05 07:17 22.40452 -45.35427 35146 ft 466 kts 43°
2026-05-05 07:18 22.44959 -45.30458 35147 ft 466 kts 43°
2026-05-05 07:18 22.49491 -45.25455 35147 ft 466 kts 43°
2026-05-05 07:19 22.54022 -45.20450 35146 ft 466 kts 43°
2026-05-05 07:19 22.58558 -45.15434 35148 ft 466 kts 43°
2026-05-05 07:20 22.63091 -45.10416 35148 ft 466 kts 43°
2026-05-05 07:20 22.67617 -45.05400 35150 ft 466 kts 43°
2026-05-05 07:21 22.72142 -45.00381 35150 ft 466 kts 43°
2026-05-05 07:21 22.76666 -44.95358 35151 ft 466 kts 43°
2026-05-05 07:22 22.81183 -44.90338 35154 ft 466 kts 43°
2026-05-05 07:22 22.85707 -44.85304 35149 ft 466 kts 43°
2026-05-05 07:23 22.90198 -44.80302 35152 ft 466 kts 43°
2026-05-05 07:23 22.94716 -44.75266 35151 ft 466 kts 43°
2026-05-05 07:24 22.99236 -44.70221 35150 ft 466 kts 43°
2026-05-05 07:24 23.03754 -44.65175 35153 ft 466 kts 43°
2026-05-05 07:25 23.08260 -44.60135 35156 ft 465 kts 43°
2026-05-05 07:25 23.12778 -44.55078 35154 ft 465 kts 43°
2026-05-05 07:26 23.17290 -44.50022 35154 ft 465 kts 43°
2026-05-05 07:26 23.21796 -44.44967 35152 ft 465 kts 43°
2026-05-05 07:27 23.26269 -44.39945 35155 ft 465 kts 43°
2026-05-05 07:27 23.30770 -44.34885 35153 ft 465 kts 43°
2026-05-05 07:28 23.35269 -44.29823 35155 ft 465 kts 43°
2026-05-05 07:28 23.39764 -44.24760 35153 ft 465 kts 43°
2026-05-05 07:29 23.44255 -44.19696 35155 ft 465 kts 43°
2026-05-05 07:29 23.48742 -44.14631 35153 ft 464 kts 43°
2026-05-05 07:30 23.53227 -44.09564 35153 ft 464 kts 43°
2026-05-05 07:30 23.59945 -44.01962 35153 ft 464 kts 43°
2026-05-05 07:31 23.64421 -43.96892 35157 ft 464 kts 43°
2026-05-05 07:31 23.68894 -43.91820 35158 ft 464 kts 43°
2026-05-05 07:32 23.73363 -43.86746 35153 ft 464 kts 43°
2026-05-05 07:32 23.77803 -43.81700 35156 ft 463 kts 43°
2026-05-05 07:33 23.82264 -43.76625 35159 ft 463 kts 43°
2026-05-05 07:33 23.86726 -43.71544 35156 ft 463 kts 43°
2026-05-05 07:34 23.91180 -43.66465 35156 ft 463 kts 43°
2026-05-05 07:34 23.95633 -43.61384 35158 ft 463 kts 43°
2026-05-05 07:35 24.00081 -43.56301 35157 ft 462 kts 43°
2026-05-05 07:35 24.04531 -43.51212 35157 ft 462 kts 43°
2026-05-05 07:36 24.08979 -43.46119 35158 ft 462 kts 43°
2026-05-05 07:36 24.13392 -43.41061 35158 ft 462 kts 43°
2026-05-05 07:37 24.17827 -43.35972 35157 ft 462 kts 43°
2026-05-05 07:37 24.22264 -43.30875 35162 ft 462 kts 43°
2026-05-05 07:38 24.26698 -43.25777 35160 ft 461 kts 43°
2026-05-05 07:38 24.31098 -43.20713 35161 ft 461 kts 43°
2026-05-05 07:39 24.35521 -43.15616 35157 ft 461 kts 43°
2026-05-05 07:39 24.39941 -43.10517 35155 ft 461 kts 43°
2026-05-05 07:40 24.44362 -43.05411 35158 ft 461 kts 43°
2026-05-05 07:40 24.48782 -43.00301 35158 ft 461 kts 43°
2026-05-05 07:41 24.53194 -42.95195 35166 ft 461 kts 43°
2026-05-05 07:41 24.57600 -42.90089 35164 ft 460 kts 43°
2026-05-05 07:42 24.62006 -42.84978 35163 ft 460 kts 43°
2026-05-05 07:42 24.66372 -42.79908 35166 ft 459 kts 43°
2026-05-05 07:43 24.70763 -42.74804 35157 ft 459 kts 43°
2026-05-05 07:43 24.75155 -42.69694 35157 ft 459 kts 43°
2026-05-05 07:44 24.79536 -42.64590 35154 ft 459 kts 43°
2026-05-05 07:44 24.83916 -42.59480 35157 ft 458 kts 43°
2026-05-05 07:45 24.88294 -42.54369 35155 ft 458 kts 43°
2026-05-05 07:45 24.92663 -42.49262 35157 ft 458 kts 43°
2026-05-05 07:46 24.97029 -42.44154 35156 ft 458 kts 43°
2026-05-05 07:46 25.01391 -42.39044 35161 ft 457 kts 43°
2026-05-05 07:47 25.05718 -42.33968 35161 ft 457 kts 43°
2026-05-05 07:47 25.10076 -42.28851 35156 ft 457 kts 43°
2026-05-05 07:48 25.14426 -42.23739 35159 ft 457 kts 43°
2026-05-05 07:48 25.18772 -42.18626 35165 ft 456 kts 43°
2026-05-05 07:49 25.23112 -42.13513 35163 ft 456 kts 43°
2026-05-05 07:49 25.27449 -42.08399 35161 ft 456 kts 43°
2026-05-05 07:50 25.31787 -42.03277 35162 ft 456 kts 43°
2026-05-05 07:50 25.36114 -41.98162 35164 ft 456 kts 43°
2026-05-05 07:51 25.40446 -41.93036 35166 ft 456 kts 43°
2026-05-05 07:51 25.44776 -41.87906 35162 ft 455 kts 43°
2026-05-05 07:52 25.49101 -41.82777 35161 ft 455 kts 43°
2026-05-05 07:52 25.53394 -41.77680 35161 ft 455 kts 43°
2026-05-05 07:53 25.57705 -41.72556 35161 ft 455 kts 43°
2026-05-05 07:53 25.62021 -41.67419 35161 ft 455 kts 43°
2026-05-05 07:54 25.66336 -41.62278 35165 ft 455 kts 43°
2026-05-05 07:54 25.70646 -41.57139 35163 ft 455 kts 43°
2026-05-05 07:55 25.74954 -41.51994 35163 ft 455 kts 43°
2026-05-05 07:55 25.79240 -41.46870 35164 ft 455 kts 43°
2026-05-05 07:56 25.83546 -41.41716 35170 ft 455 kts 43°
2026-05-05 07:56 25.87856 -41.36552 35164 ft 455 kts 43°
2026-05-05 07:57 25.92159 -41.31391 35167 ft 455 kts 43°
2026-05-05 07:57 25.96462 -41.26222 35168 ft 455 kts 43°
2026-05-05 07:58 26.00734 -41.21086 35163 ft 455 kts 43°
2026-05-05 07:58 26.05034 -41.15911 35164 ft 455 kts 43°
2026-05-05 07:59 26.09326 -41.10738 35164 ft 455 kts 43°
2026-05-05 07:59 26.13617 -41.05560 35161 ft 455 kts 43°
2026-05-05 08:00 26.17907 -41.00378 35157 ft 455 kts 43°
2026-05-05 08:00 26.22194 -40.95193 35165 ft 455 kts 43°
2026-05-05 08:01 26.26484 -40.89999 35173 ft 455 kts 43°
2026-05-05 08:01 26.30768 -40.84806 35167 ft 455 kts 43°
2026-05-05 08:02 26.35027 -40.79638 35171 ft 455 kts 43°
2026-05-05 08:02 26.39311 -40.74432 35161 ft 455 kts 43°
2026-05-05 08:03 26.43590 -40.69226 35164 ft 455 kts 43°
2026-05-05 08:03 26.47150 -40.64890 35163 ft 455 kts 43°
2026-05-05 08:04 26.51425 -40.59679 35164 ft 455 kts 44°
2026-05-05 08:04 26.55702 -40.54459 35165 ft 455 kts 44°
2026-05-05 08:05 26.59978 -40.49233 35165 ft 455 kts 44°
2026-05-05 08:05 26.64225 -40.44037 35165 ft 455 kts 44°
2026-05-05 08:06 26.68496 -40.38806 35167 ft 456 kts 44°
2026-05-05 08:06 26.72765 -40.33570 35166 ft 456 kts 44°
2026-05-05 08:07 26.77041 -40.28319 35164 ft 456 kts 44°
2026-05-05 08:07 26.81308 -40.23073 35164 ft 456 kts 44°
2026-05-05 08:08 26.85579 -40.17816 35165 ft 456 kts 44°
2026-05-05 08:08 26.89841 -40.12564 35164 ft 456 kts 44°
2026-05-05 08:09 26.94107 -40.07301 35161 ft 456 kts 44°
2026-05-05 08:09 26.98378 -40.02023 35166 ft 456 kts 44°
2026-05-05 08:10 27.02595 -39.96702 35169 ft 457 kts 46°
2026-05-05 08:10 27.06605 -39.91155 35170 ft 458 kts 47°
2026-05-05 08:11 27.10562 -39.85609 35170 ft 458 kts 47°
2026-05-05 08:11 27.14574 -39.80057 35166 ft 458 kts 47°
2026-05-05 08:12 27.18608 -39.74515 35168 ft 458 kts 47°
2026-05-05 08:12 27.22641 -39.68975 35167 ft 458 kts 47°
2026-05-05 08:13 27.26677 -39.63421 35165 ft 458 kts 47°
2026-05-05 08:13 27.30711 -39.57861 35169 ft 459 kts 47°
2026-05-05 08:14 27.34748 -39.52290 35171 ft 460 kts 47°
2026-05-05 08:14 27.38786 -39.46709 35169 ft 460 kts 47°
2026-05-05 08:15 27.42828 -39.41116 35168 ft 461 kts 48°
2026-05-05 08:15 27.46871 -39.35514 35172 ft 461 kts 48°
2026-05-05 08:16 27.50916 -39.29901 35173 ft 462 kts 48°
2026-05-05 08:16 27.54964 -39.24279 35170 ft 462 kts 48°
2026-05-05 08:17 27.58990 -39.18678 35171 ft 463 kts 48°
2026-05-05 08:17 27.63046 -39.13029 35174 ft 463 kts 48°
2026-05-05 08:18 27.67096 -39.07380 35174 ft 463 kts 48°
2026-05-05 08:18 27.71145 -39.01725 35176 ft 463 kts 48°
2026-05-05 08:19 27.75185 -38.96075 35174 ft 462 kts 48°
2026-05-05 08:19 27.79221 -38.90424 35174 ft 462 kts 48°
2026-05-05 08:20 27.83251 -38.84774 35173 ft 462 kts 48°
2026-05-05 08:20 27.87275 -38.79125 35175 ft 461 kts 48°
2026-05-05 08:21 27.91268 -38.73512 35174 ft 461 kts 48°
2026-05-05 08:21 27.95278 -38.67868 35174 ft 460 kts 48°
2026-05-05 08:22 27.99284 -38.62222 35173 ft 459 kts 48°
2026-05-05 08:22 28.03284 -38.56578 35173 ft 459 kts 48°
2026-05-05 08:23 28.07278 -38.50935 35170 ft 459 kts 48°
2026-05-05 08:23 28.11262 -38.45298 35174 ft 458 kts 48°
2026-05-05 08:24 28.15240 -38.39662 35174 ft 458 kts 48°
2026-05-05 08:24 28.19215 -38.34023 35177 ft 457 kts 48°
2026-05-05 08:25 28.23153 -38.28429 35178 ft 456 kts 48°
2026-05-05 08:25 28.27103 -38.22811 35177 ft 455 kts 49°
2026-05-05 08:26 28.31040 -38.17203 35176 ft 454 kts 49°
2026-05-05 08:26 28.34969 -38.11600 35178 ft 453 kts 49°
2026-05-05 08:27 28.38884 -38.06009 35177 ft 452 kts 49°
2026-05-05 08:27 28.42796 -38.00415 35176 ft 452 kts 49°
2026-05-05 08:28 28.46703 -37.94822 35178 ft 451 kts 49°
2026-05-05 08:28 28.50607 -37.89224 35178 ft 451 kts 49°
2026-05-05 08:29 28.54472 -37.83675 35178 ft 450 kts 49°
2026-05-05 08:30 28.60302 -37.75291 35179 ft 450 kts 49°
2026-05-05 08:30 28.64186 -37.69698 35179 ft 450 kts 48°
2026-05-05 08:31 28.68069 -37.64097 35180 ft 450 kts 48°
2026-05-05 08:31 28.71946 -37.58499 35183 ft 450 kts 48°
2026-05-05 08:32 28.75819 -37.52898 35184 ft 450 kts 48°
2026-05-05 08:32 28.79691 -37.47290 35183 ft 450 kts 48°
2026-05-05 08:33 28.83556 -37.41687 35182 ft 449 kts 48°
2026-05-05 08:33 28.87415 -37.36083 35189 ft 449 kts 48°
2026-05-05 08:34 28.91270 -37.30478 35189 ft 449 kts 48°
2026-05-05 08:34 28.95097 -37.24907 35191 ft 448 kts 48°
2026-05-05 08:35 28.98944 -37.19298 35178 ft 448 kts 48°
2026-05-05 08:35 29.02782 -37.13695 35190 ft 448 kts 48°
2026-05-05 08:36 29.06613 -37.08094 35183 ft 447 kts 48°
2026-05-05 08:36 29.10442 -37.02489 35181 ft 447 kts 48°
2026-05-05 08:37 29.14265 -36.96887 35184 ft 447 kts 48°
2026-05-05 08:37 29.18083 -36.91283 35191 ft 447 kts 48°
2026-05-05 08:38 29.21879 -36.85704 35185 ft 446 kts 48°
2026-05-05 08:38 29.25693 -36.80091 35185 ft 446 kts 48°
2026-05-05 08:39 29.29498 -36.74482 35190 ft 446 kts 48°
2026-05-05 08:39 29.33303 -36.68867 35186 ft 446 kts 48°
2026-05-05 08:40 29.37101 -36.63254 35186 ft 445 kts 48°
2026-05-05 08:40 29.40895 -36.57641 35191 ft 445 kts 48°
2026-05-05 08:41 29.44666 -36.52053 35191 ft 445 kts 48°
2026-05-05 08:41 29.48452 -36.46436 35191 ft 445 kts 48°
2026-05-05 08:42 29.52238 -36.40811 35190 ft 445 kts 48°
2026-05-05 08:42 29.56016 -36.35190 35191 ft 445 kts 48°
2026-05-05 08:43 29.59791 -36.29565 35190 ft 444 kts 48°
2026-05-05 08:43 29.63566 -36.23933 35191 ft 444 kts 48°
2026-05-05 08:44 29.67337 -36.18299 35194 ft 444 kts 48°
2026-05-05 08:44 29.71077 -36.12703 35199 ft 444 kts 48°
2026-05-05 08:45 29.74833 -36.07076 35190 ft 443 kts 48°
2026-05-05 08:45 29.78584 -36.01449 35194 ft 443 kts 47°
2026-05-05 08:46 29.82331 -35.95820 35193 ft 443 kts 47°
2026-05-05 08:46 29.86075 -35.90186 35201 ft 442 kts 47°
2026-05-05 08:47 29.89806 -35.84567 35205 ft 442 kts 47°
2026-05-05 08:47 29.93536 -35.78939 35192 ft 441 kts 47°
2026-05-05 08:48 29.97255 -35.73321 35195 ft 440 kts 47°
2026-05-05 08:48 30.00942 -35.67743 35199 ft 440 kts 47°
2026-05-05 08:49 30.04652 -35.62124 35201 ft 439 kts 47°
2026-05-05 08:49 30.08351 -35.56512 35202 ft 439 kts 47°
2026-05-05 08:50 30.12047 -35.50897 35205 ft 438 kts 47°
2026-05-05 08:50 30.15737 -35.45284 35206 ft 438 kts 47°
2026-05-05 08:51 30.19417 -35.39679 35206 ft 438 kts 47°
2026-05-05 08:51 30.23096 -35.34067 35207 ft 437 kts 47°
2026-05-05 08:52 30.26763 -35.28466 35203 ft 437 kts 47°
2026-05-05 08:52 30.30431 -35.22854 35204 ft 437 kts 47°
2026-05-05 08:53 30.33472 -35.18197 35204 ft 436 kts 47°
2026-05-05 08:53 30.37722 -35.11678 35204 ft 436 kts 47°
2026-05-05 08:54 30.41378 -35.06063 35205 ft 436 kts 47°
2026-05-05 08:54 30.44414 -35.01391 35207 ft 436 kts 47°
2026-05-05 08:55 30.48057 -34.95782 35207 ft 435 kts 47°
2026-05-05 08:55 30.51698 -34.90167 35207 ft 435 kts 47°
2026-05-05 08:56 30.55333 -34.84552 35209 ft 435 kts 47°
2026-05-05 08:56 30.58960 -34.78943 35211 ft 434 kts 47°
2026-05-05 08:57 30.62559 -34.73368 35210 ft 434 kts 47°
2026-05-05 08:57 30.66176 -34.67759 35212 ft 433 kts 47°
2026-05-05 08:58 30.69782 -34.62158 35210 ft 433 kts 47°
2026-05-05 08:58 30.73384 -34.56554 35208 ft 432 kts 47°
2026-05-05 08:59 30.76979 -34.50955 35211 ft 431 kts 47°
2026-05-05 08:59 30.80560 -34.45370 35218 ft 431 kts 46°
2026-05-05 09:00 30.84115 -34.39817 35214 ft 430 kts 46°
2026-05-05 09:00 30.87690 -34.34225 35213 ft 429 kts 46°
2026-05-05 09:01 30.91251 -34.28645 35219 ft 428 kts 46°
2026-05-05 09:01 30.94800 -34.23078 35216 ft 428 kts 46°
2026-05-05 09:02 30.98324 -34.17542 35214 ft 427 kts 46°
2026-05-05 09:02 31.01857 -34.11985 35220 ft 426 kts 46°
2026-05-05 09:03 31.05383 -34.06430 35217 ft 426 kts 46°
2026-05-05 09:03 31.08906 -34.00873 35214 ft 425 kts 46°
2026-05-05 09:04 31.12417 -33.95326 35220 ft 425 kts 46°
2026-05-05 09:04 31.15922 -33.89783 35224 ft 424 kts 46°
2026-05-05 09:05 31.19420 -33.84241 35229 ft 424 kts 46°
2026-05-05 09:05 31.22910 -33.78704 35217 ft 423 kts 46°
2026-05-05 09:06 31.26392 -33.73171 35222 ft 422 kts 46°
2026-05-05 09:06 31.29865 -33.67645 35224 ft 421 kts 46°
2026-05-05 09:07 31.33330 -33.62124 35224 ft 421 kts 46°
2026-05-05 09:07 31.36767 -33.56642 35223 ft 420 kts 46°
2026-05-05 09:08 31.40214 -33.51135 35224 ft 419 kts 46°
2026-05-05 09:08 31.43654 -33.45630 35223 ft 418 kts 46°
2026-05-05 09:09 31.47079 -33.40141 35222 ft 417 kts 46°
2026-05-05 09:09 31.50493 -33.34663 35227 ft 416 kts 46°
2026-05-05 09:10 31.53905 -33.29182 35226 ft 416 kts 46°
2026-05-05 09:10 31.57308 -33.23707 35226 ft 415 kts 45°
2026-05-05 09:11 31.60682 -33.18269 35228 ft 415 kts 45°
2026-05-05 09:11 31.64095 -33.12761 35229 ft 414 kts 45°
2026-05-05 09:12 31.67454 -33.07332 35227 ft 414 kts 45°
2026-05-05 09:12 31.70833 -33.01865 35228 ft 413 kts 45°
2026-05-05 09:13 31.74200 -32.96407 35228 ft 412 kts 45°
2026-05-05 09:13 31.77565 -32.90948 35231 ft 412 kts 45°
2026-05-05 09:14 31.80918 -32.85498 35234 ft 411 kts 45°
2026-05-05 09:14 31.84265 -32.80051 35232 ft 411 kts 45°
2026-05-05 09:15 31.87608 -32.74603 35233 ft 410 kts 45°
2026-05-05 09:15 31.90926 -32.69190 35239 ft 410 kts 45°
2026-05-05 09:16 31.94266 -32.63732 35245 ft 410 kts 45°
2026-05-05 09:16 31.97603 -32.58270 35234 ft 410 kts 45°
2026-05-05 09:17 32.00934 -32.52809 35233 ft 410 kts 45°
2026-05-05 09:17 32.04264 -32.47344 35234 ft 410 kts 45°
2026-05-05 09:18 32.07592 -32.41875 35236 ft 411 kts 45°
2026-05-05 09:18 32.10920 -32.36396 35240 ft 411 kts 45°
2026-05-05 09:19 32.14251 -32.30906 35236 ft 412 kts 45°
2026-05-05 09:19 32.17586 -32.25402 35237 ft 413 kts 45°
2026-05-05 09:20 32.20922 -32.19885 35241 ft 413 kts 45°
2026-05-05 09:20 32.24245 -32.14384 35241 ft 414 kts 45°
2026-05-05 09:21 32.27584 -32.08847 35240 ft 414 kts 45°
2026-05-05 09:21 32.30922 -32.03304 35246 ft 414 kts 45°
2026-05-05 09:22 32.34259 -31.97754 35240 ft 414 kts 45°
2026-05-05 09:22 32.37601 -31.92189 35242 ft 415 kts 45°
2026-05-05 09:23 32.40942 -31.86617 35241 ft 415 kts 45°
2026-05-05 09:23 32.44279 -31.81044 35245 ft 415 kts 45°
2026-05-05 09:24 32.47593 -31.75500 35247 ft 415 kts 45°
2026-05-05 09:24 32.50923 -31.69920 35251 ft 415 kts 45°
2026-05-05 09:25 32.54250 -31.64339 35248 ft 415 kts 45°
2026-05-05 09:25 32.57576 -31.58750 35247 ft 414 kts 45°
2026-05-05 09:26 32.60897 -31.53163 35249 ft 414 kts 45°
2026-05-05 09:26 32.64216 -31.47569 35251 ft 414 kts 45°
2026-05-05 09:27 32.67533 -31.41972 35252 ft 414 kts 45°
2026-05-05 09:27 32.70843 -31.36377 35255 ft 414 kts 46°
2026-05-05 09:28 32.74130 -31.30813 35252 ft 414 kts 46°
2026-05-05 09:28 32.77433 -31.25213 35255 ft 414 kts 46°
2026-05-05 09:29 32.80736 -31.19606 35247 ft 414 kts 46°
2026-05-05 09:29 32.84035 -31.13996 35250 ft 414 kts 46°
2026-05-05 09:30 32.87328 -31.08389 35257 ft 413 kts 46°
2026-05-05 09:30 32.90620 -31.02774 35257 ft 413 kts 46°
2026-05-05 09:31 32.93886 -30.97195 35256 ft 413 kts 46°
2026-05-05 09:31 32.97176 -30.91569 35262 ft 413 kts 46°
2026-05-05 09:32 33.00456 -30.85949 35261 ft 413 kts 46°
2026-05-05 09:32 33.03740 -30.80315 35261 ft 413 kts 46°
2026-05-05 09:33 33.07014 -30.74690 35259 ft 413 kts 46°
2026-05-05 09:33 33.10285 -30.69060 35262 ft 413 kts 46°
2026-05-05 09:34 33.13534 -30.63460 35260 ft 413 kts 46°
2026-05-05 09:34 33.16800 -30.57822 35261 ft 413 kts 47°
2026-05-05 09:35 33.20064 -30.52180 35264 ft 413 kts 47°
2026-05-05 09:35 33.24955 -30.43708 35263 ft 413 kts 47°
2026-05-05 09:36 33.28213 -30.38054 35267 ft 413 kts 47°
2026-05-05 09:36 33.31465 -30.32402 35265 ft 413 kts 47°
2026-05-05 09:37 33.34713 -30.26747 35267 ft 413 kts 47°
2026-05-05 09:37 33.37959 -30.21089 35267 ft 412 kts 47°
2026-05-05 09:38 33.41199 -30.15431 35259 ft 412 kts 47°
2026-05-05 09:38 33.44432 -30.09776 35263 ft 411 kts 47°
2026-05-05 09:39 33.47662 -30.04120 35268 ft 411 kts 47°
2026-05-05 09:39 33.50759 -29.98332 35269 ft 416 kts 51°
2026-05-05 09:40 33.53598 -29.92283 35268 ft 416 kts 52°
2026-05-05 09:40 33.56378 -29.86236 35271 ft 416 kts 52°
2026-05-05 09:41 33.59161 -29.80165 35269 ft 416 kts 52°
2026-05-05 09:41 33.61949 -29.74088 35272 ft 415 kts 52°
2026-05-05 09:42 33.64732 -29.68022 35270 ft 415 kts 52°
2026-05-05 09:42 33.67509 -29.61958 35274 ft 414 kts 53°
2026-05-05 09:43 33.70281 -29.55895 35271 ft 414 kts 53°
2026-05-05 09:43 33.73047 -29.49835 35275 ft 414 kts 53°
2026-05-05 09:44 33.75810 -29.43771 35270 ft 413 kts 53°
2026-05-05 09:44 33.78568 -29.37708 35270 ft 413 kts 53°
2026-05-05 09:45 33.80856 -29.32670 35269 ft 413 kts 53°
2026-05-05 09:45 33.84047 -29.25631 35267 ft 412 kts 53°
2026-05-05 09:46 33.86342 -29.20561 35272 ft 412 kts 53°
2026-05-05 09:46 33.89079 -29.14502 35271 ft 412 kts 53°
2026-05-05 09:47 33.91809 -29.08450 35276 ft 411 kts 53°
2026-05-05 09:47 33.94517 -29.02436 35275 ft 411 kts 53°
2026-05-05 09:48 33.97237 -28.96387 35273 ft 411 kts 53°
2026-05-05 09:48 33.99954 -28.90331 35273 ft 410 kts 53°
2026-05-05 09:49 34.02664 -28.84282 35272 ft 410 kts 53°
2026-05-05 09:49 34.05372 -28.78227 35273 ft 410 kts 53°
2026-05-05 09:50 34.08072 -28.72177 35270 ft 410 kts 53°
2026-05-05 09:50 34.10769 -28.66126 35274 ft 410 kts 53°
2026-05-05 09:51 34.13464 -28.60068 35269 ft 410 kts 53°
2026-05-05 09:51 34.16158 -28.54004 35273 ft 410 kts 53°
2026-05-05 09:52 34.18849 -28.47933 35269 ft 410 kts 53°
2026-05-05 09:52 34.21539 -28.41853 35272 ft 410 kts 53°
2026-05-05 09:53 34.24208 -28.35811 35273 ft 410 kts 53°
2026-05-05 09:53 34.26892 -28.29726 35277 ft 411 kts 53°
2026-05-05 09:54 34.29580 -28.23622 35277 ft 411 kts 54°
2026-05-05 09:54 34.32267 -28.17508 35276 ft 411 kts 54°
2026-05-05 09:55 34.34951 -28.11388 35278 ft 412 kts 54°
2026-05-05 09:55 34.37637 -28.05253 35277 ft 412 kts 54°
2026-05-05 09:56 34.40324 -27.99108 35282 ft 413 kts 54°
2026-05-05 09:56 34.43010 -27.92952 35280 ft 414 kts 54°
2026-05-05 09:57 34.45702 -27.86772 35278 ft 415 kts 54°
2026-05-05 09:57 34.48393 -27.80582 35280 ft 416 kts 54°
2026-05-05 09:58 34.51085 -27.74378 35283 ft 416 kts 54°
2026-05-05 09:58 34.53778 -27.68161 35287 ft 417 kts 55°
2026-05-05 09:59 34.56478 -27.61920 35288 ft 418 kts 55°
2026-05-05 09:59 34.59159 -27.55709 35276 ft 419 kts 55°
2026-05-05 10:00 34.61864 -27.49430 35280 ft 420 kts 55°
2026-05-05 10:00 34.64572 -27.43132 35282 ft 421 kts 55°
2026-05-05 10:01 34.67280 -27.36823 35290 ft 422 kts 56°
2026-05-05 10:01 34.69994 -27.30491 35285 ft 423 kts 56°
2026-05-05 10:02 34.72717 -27.24123 35289 ft 425 kts 56°
2026-05-05 10:02 34.75444 -27.17736 35289 ft 426 kts 56°
2026-05-05 10:03 34.78159 -27.11362 35289 ft 428 kts 56°
2026-05-05 10:03 34.80896 -27.04926 35291 ft 429 kts 57°
2026-05-05 10:04 34.83636 -26.98468 35288 ft 430 kts 57°
2026-05-05 10:04 34.86382 -26.91986 35287 ft 431 kts 57°
2026-05-05 10:05 34.89132 -26.85482 35290 ft 432 kts 57°
2026-05-05 10:05 34.91887 -26.78952 35292 ft 433 kts 57°
2026-05-05 10:06 34.94647 -26.72401 35290 ft 435 kts 57°
2026-05-05 10:06 34.97405 -26.65838 35291 ft 435 kts 57°
2026-05-05 10:07 35.00163 -26.59261 35293 ft 436 kts 57°
2026-05-05 10:07 35.02909 -26.52702 35291 ft 437 kts 57°
2026-05-05 10:08 35.05669 -26.46098 35290 ft 437 kts 58°
2026-05-05 10:08 35.08432 -26.39474 35290 ft 438 kts 58°
2026-05-05 10:09 35.11192 -26.32844 35290 ft 438 kts 58°
2026-05-05 10:09 35.13952 -26.26197 35297 ft 439 kts 58°
2026-05-05 10:10 35.16716 -26.19531 35291 ft 440 kts 58°
2026-05-05 10:10 35.19483 -26.12844 35293 ft 441 kts 58°
2026-05-05 10:11 35.22256 -26.06128 35294 ft 443 kts 58°
2026-05-05 10:11 35.25012 -25.99439 35286 ft 443 kts 58°
2026-05-05 10:12 35.27786 -25.92693 35288 ft 444 kts 58°
2026-05-05 10:12 35.30561 -25.85931 35291 ft 445 kts 59°
2026-05-05 10:13 35.33341 -25.79144 35297 ft 446 kts 59°
2026-05-05 10:13 35.36122 -25.72339 35293 ft 447 kts 59°
2026-05-05 10:14 35.38902 -25.65524 35296 ft 448 kts 59°
2026-05-05 10:14 35.41682 -25.58693 35296 ft 448 kts 59°
2026-05-05 10:15 35.44463 -25.51846 35296 ft 449 kts 59°
2026-05-05 10:15 35.47245 -25.44983 35297 ft 450 kts 59°
2026-05-05 10:16 35.50012 -25.38144 35299 ft 451 kts 59°
2026-05-05 10:16 35.52798 -25.31240 35297 ft 451 kts 59°
2026-05-05 10:17 35.55585 -25.24322 35297 ft 452 kts 59°
2026-05-05 10:17 35.58372 -25.17387 35299 ft 453 kts 60°
2026-05-05 10:18 35.61157 -25.10445 35297 ft 453 kts 60°
2026-05-05 10:18 35.63941 -25.03488 35294 ft 454 kts 60°
2026-05-05 10:19 35.66728 -24.96510 35300 ft 454 kts 60°
2026-05-05 10:19 35.69491 -24.89575 35291 ft 455 kts 60°
2026-05-05 10:20 35.72275 -24.82575 35296 ft 455 kts 60°
2026-05-05 10:20 35.75055 -24.75569 35299 ft 456 kts 60°
2026-05-05 10:21 35.77835 -24.68550 35296 ft 456 kts 60°
2026-05-05 10:21 35.80615 -24.61513 35296 ft 457 kts 60°
2026-05-05 10:22 35.83391 -24.54472 35295 ft 457 kts 60°
2026-05-05 10:22 35.86169 -24.47411 35295 ft 458 kts 60°
2026-05-05 10:23 35.88944 -24.40342 35297 ft 458 kts 61°
2026-05-05 10:23 35.91719 -24.33257 35298 ft 459 kts 61°
2026-05-05 10:24 35.94480 -24.26190 35299 ft 460 kts 61°
2026-05-05 10:24 35.97254 -24.19077 35298 ft 460 kts 61°
2026-05-05 10:25 36.00026 -24.11953 35296 ft 461 kts 61°
2026-05-05 10:25 36.02798 -24.04811 35299 ft 461 kts 61°
2026-05-05 10:26 36.05567 -23.97664 35297 ft 461 kts 61°
2026-05-05 10:26 36.08333 -23.90506 35295 ft 462 kts 61°
2026-05-05 10:27 36.11098 -23.83336 35300 ft 462 kts 61°
2026-05-05 10:27 36.13861 -23.76155 35297 ft 463 kts 62°
2026-05-05 10:28 36.16626 -23.68953 35295 ft 463 kts 62°
2026-05-05 10:28 36.19387 -23.61744 35299 ft 464 kts 62°
2026-05-05 10:29 36.22128 -23.54572 35298 ft 464 kts 62°
2026-05-05 10:29 36.24889 -23.47330 35299 ft 465 kts 62°
2026-05-05 10:30 36.27646 -23.40083 35299 ft 465 kts 62°
2026-05-05 10:30 36.30403 -23.32816 35303 ft 466 kts 62°
2026-05-05 10:31 36.33157 -23.25543 35299 ft 466 kts 62°
2026-05-05 10:31 36.35912 -23.18251 35299 ft 467 kts 62°
2026-05-05 10:32 36.38661 -23.10957 35300 ft 467 kts 62°
2026-05-05 10:32 36.41410 -23.03646 35303 ft 467 kts 62°
2026-05-05 10:33 36.44137 -22.96377 35303 ft 467 kts 62°
2026-05-05 10:33 36.46879 -22.89050 35302 ft 467 kts 62°
2026-05-05 10:34 36.49616 -22.81721 35299 ft 468 kts 63°
2026-05-05 10:34 36.52352 -22.74377 35300 ft 468 kts 63°
2026-05-05 10:35 36.55082 -22.67032 35304 ft 468 kts 63°
2026-05-05 10:35 36.57350 -22.60917 35303 ft 468 kts 63°
2026-05-05 10:36 36.60076 -22.53551 35302 ft 468 kts 63°
2026-05-05 10:36 36.63237 -22.44985 35303 ft 469 kts 63°
2026-05-05 10:37 36.65519 -22.38790 35301 ft 469 kts 63°
2026-05-05 10:37 36.68216 -22.31449 35300 ft 469 kts 63°
2026-05-05 10:38 36.70930 -22.24046 35297 ft 470 kts 63°
2026-05-05 10:38 36.73645 -22.16621 35298 ft 471 kts 63°
2026-05-05 10:39 36.76356 -22.09190 35301 ft 471 kts 63°
2026-05-05 10:39 36.79064 -22.01750 35299 ft 471 kts 63°
2026-05-05 10:40 36.81768 -21.94299 35302 ft 472 kts 63°
2026-05-05 10:40 36.84475 -21.86825 35303 ft 472 kts 63°
2026-05-05 10:41 36.87172 -21.79358 35314 ft 472 kts 63°
2026-05-05 10:41 36.89816 -21.72013 35294 ft 462 kts 63°
2026-05-05 10:42 36.93762 -21.61035 35297 ft 461 kts 63°
2026-05-05 10:43 36.96387 -21.53714 35295 ft 462 kts 63°
2026-05-05 10:43 36.99011 -21.46374 35300 ft 462 kts 63°
2026-05-05 10:44 37.01629 -21.39030 35301 ft 462 kts 63°
2026-05-05 10:44 37.04244 -21.31676 35301 ft 463 kts 64°
2026-05-05 10:45 37.06857 -21.24312 35297 ft 463 kts 64°
2026-05-05 10:45 37.09470 -21.16928 35298 ft 463 kts 64°
2026-05-05 10:46 37.12064 -21.09584 35302 ft 464 kts 64°
2026-05-05 10:46 37.14670 -21.02184 35302 ft 464 kts 64°
2026-05-05 10:47 37.17274 -20.94773 35298 ft 465 kts 64°
2026-05-05 10:47 37.19875 -20.87353 35299 ft 465 kts 64°
2026-05-05 10:48 37.22475 -20.79916 35303 ft 465 kts 64°
2026-05-05 10:48 37.25069 -20.72479 35296 ft 465 kts 64°
2026-05-05 10:49 37.27661 -20.65025 35299 ft 466 kts 64°
2026-05-05 10:49 37.30251 -20.57563 35296 ft 466 kts 64°
2026-05-05 10:50 37.32835 -20.50098 35301 ft 466 kts 64°
2026-05-05 10:50 37.35402 -20.42666 35300 ft 466 kts 64°
2026-05-05 10:51 37.37985 -20.35165 35297 ft 467 kts 65°
2026-05-05 10:51 37.40562 -20.27664 35298 ft 467 kts 65°
2026-05-05 10:52 37.43135 -20.20155 35299 ft 468 kts 65°
2026-05-05 10:52 37.45692 -20.12676 35302 ft 468 kts 65°
2026-05-05 10:53 37.48258 -20.05151 35298 ft 468 kts 65°
2026-05-05 10:53 37.50818 -19.97615 35295 ft 468 kts 65°
2026-05-05 10:54 37.53307 -19.90031 35295 ft 469 kts 66°
2026-05-05 10:54 37.55765 -19.82423 35295 ft 469 kts 66°
2026-05-05 10:55 37.58232 -19.74802 35293 ft 469 kts 66°
2026-05-05 10:55 37.60701 -19.67184 35297 ft 470 kts 66°
2026-05-05 10:56 37.63172 -19.59550 35291 ft 470 kts 66°
2026-05-05 10:56 37.65622 -19.51959 35294 ft 470 kts 66°
2026-05-05 10:57 37.68088 -19.44301 35294 ft 470 kts 66°
2026-05-05 10:57 37.70546 -19.36642 35291 ft 470 kts 66°
2026-05-05 10:58 37.72985 -19.29022 35290 ft 470 kts 66°
2026-05-05 10:58 37.75432 -19.21357 35292 ft 471 kts 66°
2026-05-05 10:59 37.77878 -19.13677 35288 ft 471 kts 66°
2026-05-05 10:59 37.80317 -19.05996 35290 ft 471 kts 67°
2026-05-05 11:00 37.82752 -18.98308 35291 ft 471 kts 67°
2026-05-05 11:00 37.85183 -18.90611 35290 ft 471 kts 67°
2026-05-05 11:01 37.87616 -18.82887 35286 ft 472 kts 67°
2026-05-05 11:01 37.90041 -18.75168 35287 ft 472 kts 67°
2026-05-05 11:02 37.92461 -18.67442 35286 ft 472 kts 67°
2026-05-05 11:02 37.94865 -18.59748 35285 ft 472 kts 67°
2026-05-05 11:03 37.97277 -18.52006 35289 ft 472 kts 67°
2026-05-05 11:03 37.99684 -18.44256 35272 ft 473 kts 67°
2026-05-05 11:04 38.02088 -18.36498 35280 ft 473 kts 67°
2026-05-05 11:04 38.04489 -18.28726 35277 ft 473 kts 68°
2026-05-05 11:05 38.06887 -18.20945 35273 ft 473 kts 68°
2026-05-05 11:05 38.09277 -18.13164 35275 ft 473 kts 68°
2026-05-05 11:06 38.11666 -18.05367 35278 ft 473 kts 68°
2026-05-05 11:06 38.14032 -17.97625 35279 ft 474 kts 68°
2026-05-05 11:07 38.16414 -17.89807 35277 ft 474 kts 68°
2026-05-05 11:07 38.18789 -17.81988 35276 ft 474 kts 68°
2026-05-05 11:08 38.21157 -17.74169 35276 ft 474 kts 68°
2026-05-05 11:08 38.23524 -17.66336 35276 ft 474 kts 68°
2026-05-05 11:09 38.25884 -17.58501 35278 ft 474 kts 68°
2026-05-05 11:09 38.28223 -17.50713 35277 ft 474 kts 68°
2026-05-05 11:10 38.30574 -17.42865 35272 ft 475 kts 68°
2026-05-05 11:10 38.32922 -17.35001 35274 ft 475 kts 68°
2026-05-05 11:11 38.35266 -17.27129 35270 ft 475 kts 68°
2026-05-05 11:11 38.37604 -17.19257 35269 ft 475 kts 68°
2026-05-05 11:12 38.39939 -17.11370 35268 ft 475 kts 68°
2026-05-05 11:12 38.42267 -17.03485 35266 ft 475 kts 68°
2026-05-05 11:13 38.44591 -16.95589 35265 ft 476 kts 69°
2026-05-05 11:13 38.46910 -16.87688 35265 ft 476 kts 69°
2026-05-05 11:14 38.49207 -16.79835 35268 ft 476 kts 69°
2026-05-05 11:14 38.51515 -16.71925 35265 ft 475 kts 69°
2026-05-05 11:15 38.53820 -16.64003 35263 ft 475 kts 69°
2026-05-05 11:15 38.56122 -16.56067 35264 ft 476 kts 69°
2026-05-05 11:16 38.58414 -16.48140 35262 ft 476 kts 69°
2026-05-05 11:16 38.60702 -16.40205 35260 ft 476 kts 69°
2026-05-05 11:17 38.62985 -16.32263 35256 ft 476 kts 69°
2026-05-05 11:17 38.65248 -16.24366 35254 ft 476 kts 69°
2026-05-05 11:18 38.67522 -16.16409 35254 ft 476 kts 69°
2026-05-05 11:18 38.69794 -16.08436 35258 ft 476 kts 69°
2026-05-05 11:19 38.72057 -16.00466 35257 ft 476 kts 69°
2026-05-05 11:19 38.74317 -15.92487 35256 ft 476 kts 69°
2026-05-05 11:20 38.76569 -15.84512 35256 ft 476 kts 69°
2026-05-05 11:20 38.78814 -15.76534 35250 ft 476 kts 69°
2026-05-05 11:21 38.81054 -15.68554 35250 ft 476 kts 69°
2026-05-05 11:21 38.83288 -15.60568 35250 ft 476 kts 69°
2026-05-05 11:22 38.85517 -15.52576 35249 ft 476 kts 69°
2026-05-05 11:22 38.87741 -15.44576 35248 ft 476 kts 69°
2026-05-05 11:23 38.89948 -15.36615 35250 ft 476 kts 69°
2026-05-05 11:23 38.92165 -15.28591 35249 ft 477 kts 69°
2026-05-05 11:24 38.94375 -15.20569 35244 ft 476 kts 70°
2026-05-05 11:24 38.96578 -15.12548 35245 ft 476 kts 70°
2026-05-05 11:25 38.98776 -15.04519 35242 ft 476 kts 70°
2026-05-05 11:25 39.00945 -14.96479 35240 ft 476 kts 71°
2026-05-05 11:26 39.02867 -14.88332 35237 ft 476 kts 73°
2026-05-05 11:26 39.04705 -14.80218 35242 ft 476 kts 73°
2026-05-05 11:27 39.06588 -14.72047 35239 ft 476 kts 72°
2026-05-05 11:27 39.08489 -14.63888 35239 ft 476 kts 72°
2026-05-05 11:28 39.10394 -14.55716 35237 ft 476 kts 72°
2026-05-05 11:28 39.11974 -14.48914 35235 ft 476 kts 72°
2026-05-05 11:29 39.14173 -14.39405 35234 ft 476 kts 72°
2026-05-05 11:29 39.16055 -14.31231 35230 ft 476 kts 72°
2026-05-05 11:30 39.17629 -14.24374 35231 ft 476 kts 72°
2026-05-05 11:30 39.19488 -14.16244 35227 ft 476 kts 72°
2026-05-05 11:31 39.21355 -14.08057 35228 ft 476 kts 73°
2026-05-05 11:31 39.23215 -13.99866 35226 ft 475 kts 73°
2026-05-05 11:32 39.25067 -13.91680 35223 ft 475 kts 73°
2026-05-05 11:32 39.26916 -13.83483 35223 ft 475 kts 73°
2026-05-05 11:33 39.28746 -13.75338 35218 ft 475 kts 73°
2026-05-05 11:33 39.30583 -13.67130 35220 ft 475 kts 73°
2026-05-05 11:34 39.32413 -13.58925 35217 ft 476 kts 73°
2026-05-05 11:34 39.34238 -13.50714 35214 ft 476 kts 73°
2026-05-05 11:35 39.36057 -13.42498 35214 ft 476 kts 73°
2026-05-05 11:35 39.37872 -13.34270 35210 ft 476 kts 73°
2026-05-05 11:36 39.39669 -13.26092 35209 ft 476 kts 73°
2026-05-05 11:36 39.41471 -13.17862 35212 ft 476 kts 73°
2026-05-05 11:37 39.43267 -13.09627 35206 ft 476 kts 73°
2026-05-05 11:37 39.45060 -13.01378 35205 ft 476 kts 73°
2026-05-05 11:38 39.46848 -12.93121 35204 ft 476 kts 73°
2026-05-05 11:38 39.48629 -12.84862 35201 ft 476 kts 73°
2026-05-05 11:39 39.50405 -12.76595 35198 ft 477 kts 73°
2026-05-05 11:39 39.52178 -12.68310 35197 ft 477 kts 73°
2026-05-05 11:40 39.53933 -12.60080 35194 ft 477 kts 73°
2026-05-05 11:40 39.55697 -12.51776 35193 ft 478 kts 73°
2026-05-05 11:41 39.57454 -12.43470 35193 ft 478 kts 73°
2026-05-05 11:41 39.59210 -12.35138 35193 ft 478 kts 73°
2026-05-05 11:42 39.60960 -12.26803 35189 ft 479 kts 73°
2026-05-05 11:42 39.62705 -12.18457 35182 ft 479 kts 73°
2026-05-05 11:43 39.64444 -12.10110 35183 ft 480 kts 73°
2026-05-05 11:43 39.66179 -12.01751 35187 ft 480 kts 73°
2026-05-05 11:44 39.67911 -11.93371 35183 ft 481 kts 73°
2026-05-05 11:44 39.69627 -11.85034 35183 ft 481 kts 73°
2026-05-05 11:45 39.71350 -11.76626 35180 ft 482 kts 73°
2026-05-05 11:45 39.73070 -11.68205 35178 ft 482 kts 73°
2026-05-05 11:46 39.74783 -11.59781 35174 ft 483 kts 73°
2026-05-05 11:46 39.76493 -11.51337 35174 ft 483 kts 73°
2026-05-05 11:47 39.78197 -11.42890 35169 ft 483 kts 73°
2026-05-05 11:47 39.79896 -11.34433 35163 ft 484 kts 73°
2026-05-05 11:48 39.82439 -11.21713 35168 ft 484 kts 73°
2026-05-05 11:48 39.84117 -11.13272 35167 ft 484 kts 73°
2026-05-05 11:49 39.85797 -11.04788 35160 ft 485 kts 73°
2026-05-05 11:49 39.87475 -10.96278 35152 ft 485 kts 73°
2026-05-05 11:50 39.89147 -10.87759 35151 ft 485 kts 73°
2026-05-05 11:50 39.90813 -10.79241 35149 ft 485 kts 73°
2026-05-05 11:51 39.92473 -10.70714 35149 ft 485 kts 73°
2026-05-05 11:51 39.94115 -10.62245 35149 ft 485 kts 73°
2026-05-05 11:52 39.95762 -10.53716 35147 ft 485 kts 73°
2026-05-05 11:52 39.97399 -10.45198 35145 ft 484 kts 73°
2026-05-05 11:53 39.99034 -10.36657 35145 ft 484 kts 73°
2026-05-05 11:53 40.00657 -10.28142 35142 ft 484 kts 73°
2026-05-05 11:54 40.02272 -10.19629 35141 ft 483 kts 73°
2026-05-05 11:54 40.03881 -10.11109 35138 ft 483 kts 73°
2026-05-05 11:55 40.05483 -10.02597 35137 ft 483 kts 73°
2026-05-05 11:55 40.07070 -9.94122 35137 ft 483 kts 73°
2026-05-05 11:56 40.08662 -9.85586 35133 ft 484 kts 73°
2026-05-05 11:56 40.10247 -9.77048 35131 ft 484 kts 73°
2026-05-05 11:57 40.11827 -9.68500 35128 ft 484 kts 73°
2026-05-05 11:57 40.13403 -9.59941 35127 ft 485 kts 73°
2026-05-05 11:58 40.14963 -9.51426 35128 ft 486 kts 73°
2026-05-05 11:58 40.16530 -9.42835 35128 ft 486 kts 73°
2026-05-05 11:59 40.18094 -9.34217 35123 ft 487 kts 73°
2026-05-05 11:59 40.19655 -9.25583 35120 ft 488 kts 73°
2026-05-05 12:00 40.21210 -9.16937 35117 ft 489 kts 73°
2026-05-05 12:00 40.22579 -9.09298 35121 ft 490 kts 73°
2026-05-05 12:01 40.24154 -9.00466 35123 ft 490 kts 73°
2026-05-05 12:01 40.25699 -8.91762 35115 ft 491 kts 73°
2026-05-05 12:02 40.27238 -8.83046 35113 ft 492 kts 73°
2026-05-05 12:02 40.28763 -8.74373 35113 ft 492 kts 73°
2026-05-05 12:03 40.30294 -8.65627 35102 ft 493 kts 73°
2026-05-05 12:03 40.31821 -8.56862 35097 ft 493 kts 73°
2026-05-05 12:04 40.33342 -8.48085 35100 ft 494 kts 73°
2026-05-05 12:04 40.34859 -8.39294 35092 ft 494 kts 73°
2026-05-05 12:05 40.36369 -8.30495 35093 ft 495 kts 73°
2026-05-05 12:05 40.37876 -8.21666 35088 ft 496 kts 73°
2026-05-05 12:06 40.39381 -8.12818 35083 ft 497 kts 73°
2026-05-05 12:06 40.40871 -8.04010 35082 ft 498 kts 73°
2026-05-05 12:07 40.42367 -7.95127 35073 ft 499 kts 73°
2026-05-05 12:07 40.43857 -7.86233 35073 ft 499 kts 73°
2026-05-05 12:08 40.45341 -7.77327 35072 ft 499 kts 73°
2026-05-05 12:08 40.46818 -7.68415 35066 ft 499 kts 73°
2026-05-05 12:09 40.48288 -7.59503 35062 ft 499 kts 73°
2026-05-05 12:09 40.49755 -7.50570 35061 ft 499 kts 73°
2026-05-05 12:10 40.51211 -7.41652 35053 ft 499 kts 73°
2026-05-05 12:10 40.52650 -7.32791 35060 ft 498 kts 74°
2026-05-05 12:11 40.54089 -7.23888 35055 ft 498 kts 74°
2026-05-05 12:11 40.55521 -7.14983 35057 ft 498 kts 74°
2026-05-05 12:12 40.56946 -7.06081 35055 ft 497 kts 74°
2026-05-05 12:12 40.58362 -6.97182 35052 ft 497 kts 74°
2026-05-05 12:13 40.59771 -6.88281 35053 ft 496 kts 75°
2026-05-05 12:13 40.61170 -6.79397 35045 ft 496 kts 75°
2026-05-05 12:14 40.61982 -6.70435 35056 ft 500 kts 90°
2026-05-05 12:14 40.61411 -6.61305 35041 ft 501 kts 95°
2026-05-05 12:15 40.60510 -6.52208 35039 ft 501 kts 97°
2026-05-05 12:15 40.59591 -6.43120 35032 ft 501 kts 96°
2026-05-05 12:16 40.58708 -6.34020 35032 ft 501 kts 96°
2026-05-05 12:16 40.57844 -6.24930 35026 ft 501 kts 96°
2026-05-05 12:17 40.56969 -6.15847 35021 ft 500 kts 97°
2026-05-05 12:17 40.56086 -6.06763 35020 ft 500 kts 97°
2026-05-05 12:18 40.55202 -5.97747 35024 ft 500 kts 97°
2026-05-05 12:18 40.54309 -5.88694 35012 ft 500 kts 97°
2026-05-05 12:19 40.53033 -5.79733 35010 ft 498 kts 112°
2026-05-05 12:19 40.50075 -5.71536 35009 ft 497 kts 118°
2026-05-05 12:20 40.47507 -5.64791 35010 ft 497 kts 118°
2026-05-05 12:20 40.44418 -5.56644 35008 ft 498 kts 118°
2026-05-05 12:21 40.41334 -5.48511 35009 ft 498 kts 119°
2026-05-05 12:21 40.38244 -5.40378 35009 ft 498 kts 119°
2026-05-05 12:22 40.36704 -5.36330 34840 ft 493 kts 119°
2026-05-05 12:22 40.35169 -5.32302 34090 ft 498 kts 119°
2026-05-05 12:22 40.33602 -5.28203 33050 ft 507 kts 119°
2026-05-05 12:22 40.32015 -5.24053 32323 ft 510 kts 119°
2026-05-05 12:23 40.30427 -5.19903 31777 ft 508 kts 119°
2026-05-05 12:23 40.28848 -5.15779 31241 ft 506 kts 120°
2026-05-05 12:23 40.27273 -5.11673 30722 ft 503 kts 120°
2026-05-05 12:23 40.25700 -5.07580 30198 ft 501 kts 120°
2026-05-05 12:24 40.24161 -5.03580 29629 ft 498 kts 120°
2026-05-05 12:24 40.22606 -4.99544 29082 ft 494 kts 120°
2026-05-05 12:24 40.21065 -4.95550 28573 ft 490 kts 120°
2026-05-05 12:24 40.20016 -4.92834 28216 ft 487 kts 120°
2026-05-05 12:25 40.18588 -4.89139 27749 ft 483 kts 120°
2026-05-05 12:25 40.17081 -4.85238 27252 ft 479 kts 120°
2026-05-05 12:25 40.15575 -4.81358 26734 ft 476 kts 120°
2026-05-05 12:25 40.14080 -4.77512 26248 ft 473 kts 120°
2026-05-05 12:26 40.12596 -4.73697 25720 ft 471 kts 120°
2026-05-05 12:26 40.11114 -4.69892 25211 ft 468 kts 120°
2026-05-05 12:26 40.09642 -4.66118 24693 ft 465 kts 120°
2026-05-05 12:26 40.08178 -4.62367 24192 ft 462 kts 120°
2026-05-05 12:27 40.06720 -4.58638 23660 ft 460 kts 120°
2026-05-05 12:27 40.05271 -4.54934 23078 ft 457 kts 120°
2026-05-05 12:27 40.03850 -4.51305 22554 ft 452 kts 120°
2026-05-05 12:27 40.02427 -4.47677 22037 ft 447 kts 120°
2026-05-05 12:28 40.00999 -4.44040 21499 ft 442 kts 120°
2026-05-05 12:28 39.99604 -4.40492 21001 ft 437 kts 120°
2026-05-05 12:28 39.98238 -4.37022 20501 ft 433 kts 120°
2026-05-05 12:28 39.96782 -4.33623 19994 ft 426 kts 127°
2026-05-05 12:29 39.95014 -4.30564 19505 ft 419 kts 133°
2026-05-05 12:29 39.93181 -4.27640 19000 ft 415 kts 133°
2026-05-05 12:29 39.91357 -4.24749 18534 ft 411 kts 133°
2026-05-05 12:29 39.89552 -4.21882 18009 ft 407 kts 133°
2026-05-05 12:30 39.87774 -4.19049 17489 ft 403 kts 132°
2026-05-05 12:30 39.86010 -4.16237 17022 ft 399 kts 132°
2026-05-05 12:30 39.84322 -4.13385 16537 ft 398 kts 126°
2026-05-05 12:30 39.83208 -4.10106 16056 ft 398 kts 105°
2026-05-05 12:31 39.82671 -4.06582 15560 ft 396 kts 99°
2026-05-05 12:31 39.82243 -4.03061 15070 ft 392 kts 99°
2026-05-05 12:31 39.81815 -3.99591 14720 ft 384 kts 99°
2026-05-05 12:31 39.81616 -3.96143 14236 ft 381 kts 85°
2026-05-05 12:32 39.82287 -3.92871 13820 ft 373 kts 61°
2026-05-05 12:32 39.83799 -3.90185 13468 ft 367 kts 44°
2026-05-05 12:32 39.85595 -3.87817 13142 ft 366 kts 42°
2026-05-05 12:32 39.87373 -3.85524 12808 ft 364 kts 42°
2026-05-05 12:33 39.89157 -3.83202 12484 ft 361 kts 43°
2026-05-05 12:33 39.90920 -3.80883 12154 ft 359 kts 43°
2026-05-05 12:33 39.92668 -3.78573 11828 ft 356 kts 43°
2026-05-05 12:33 39.94396 -3.76282 11576 ft 351 kts 43°
2026-05-05 12:34 39.96076 -3.74040 11389 ft 339 kts 43°
2026-05-05 12:34 39.97694 -3.71877 11198 ft 328 kts 43°
2026-05-05 12:34 39.99263 -3.69780 10980 ft 317 kts 43°
2026-05-05 12:34 40.00766 -3.67771 10429 ft 303 kts 43°
2026-05-05 12:35 40.02224 -3.65823 10193 ft 302 kts 43°
2026-05-05 12:35 40.03693 -3.63859 9956 ft 302 kts 43°
2026-05-05 12:35 40.05156 -3.61906 9554 ft 300 kts 43°
2026-05-05 12:35 40.06031 -3.60737 9356 ft 297 kts 43°
2026-05-05 12:36 40.07472 -3.58803 9092 ft 296 kts 44°
2026-05-05 12:36 40.08906 -3.56878 8823 ft 295 kts 43°
2026-05-05 12:36 40.10329 -3.54965 8557 ft 294 kts 43°
2026-05-05 12:36 40.11754 -3.53053 8300 ft 293 kts 43°
2026-05-05 12:37 40.13131 -3.51199 8149 ft 283 kts 43°
2026-05-05 12:37 40.14487 -3.49374 7894 ft 277 kts 43°
2026-05-05 12:37 40.15819 -3.47581 7645 ft 272 kts 43°
2026-05-05 12:37 40.17126 -3.45822 7398 ft 268 kts 43°
2026-05-05 12:38 40.18471 -3.44137 7074 ft 266 kts 39°
2026-05-05 12:38 40.19858 -3.42541 6811 ft 265 kts 39°
2026-05-05 12:38 40.21312 -3.41088 6584 ft 262 kts 28°
2026-05-05 12:38 40.22884 -3.39906 6355 ft 260 kts 25°
2026-05-05 12:39 40.24476 -3.38790 6118 ft 256 kts 22°
2026-05-05 12:39 40.26117 -3.38158 6048 ft 239 kts
2026-05-05 12:39 40.27734 -3.37978 5955 ft 227 kts 359°
2026-05-05 12:39 40.29275 -3.37876 5885 ft 217 kts 359°
2026-05-05 12:40 40.30751 -3.37801 5780 ft 207 kts 356°
2026-05-05 12:40 40.32102 -3.38203 5644 ft 194 kts 327°
2026-05-05 12:40 40.33187 -3.39197 5497 ft 189 kts 316°
2026-05-05 12:40 40.34201 -3.40293 5264 ft 188 kts 318°
2026-05-05 12:41 40.35245 -3.41336 4970 ft 189 kts 319°
2026-05-05 12:41 40.36274 -3.42369 4679 ft 182 kts 318°
2026-05-05 12:41 40.37248 -3.43362 4429 ft 172 kts 318°
2026-05-05 12:41 40.38161 -3.44288 4218 ft 164 kts 318°
2026-05-05 12:42 40.39035 -3.45174 3997 ft 153 kts 319°
2026-05-05 12:42 40.39848 -3.45997 3815 ft 142 kts 318°
2026-05-05 12:42 40.40601 -3.46763 3610 ft 133 kts 318°
2026-05-05 12:42 40.41331 -3.47506 3451 ft 133 kts 319°
2026-05-05 12:43 40.42060 -3.48244 3248 ft 132 kts 319°
2026-05-05 12:43 40.42792 -3.48984 3077 ft 136 kts 317°
2026-05-05 12:43 40.43538 -3.49746 2878 ft 136 kts 318°
2026-05-05 12:43 40.44289 -3.50506 2685 ft 137 kts 319°
2026-05-05 12:44 40.45059 -3.51265 2481 ft 140 kts 319°
2026-05-05 12:44 40.45837 -3.52046 2337 ft 140 kts 313°
2026-05-05 12:44 40.46602 -3.52850 2107 ft 139 kts 316°
2026-05-05 12:44 40.47358 -3.53621 1954 ft 136 kts 316°
2026-05-05 12:45 40.48073 -3.54362 1939 ft 120 kts 322°
2026-05-05 12:45 40.48650 -3.54935 1954 ft 88 kts 326°
2026-05-05 12:45 40.49067 -3.55363 1961 ft 65 kts 322°
2026-05-05 12:45 40.49369 -3.55677 1968 ft 34 kts 312°
2026-05-05 12:46 40.49413 -3.55786 1974 ft 12 kts 285°
2026-05-05 12:46 40.49416 -3.55928 1967 ft 19 kts 272°
2026-05-05 12:46 40.49510 -3.56088 1966 ft 24 kts 324°
2026-05-05 12:46 40.49553 -3.56272 1968 ft 20 kts 266°
2026-05-05 12:47 40.49551 -3.56442 1973 ft 17 kts 270°
2026-05-05 12:47 40.49617 -3.56534 1979 ft 15 kts 345°
2026-05-05 12:47 40.49669 -3.56539 1979 ft 0 kts 345°
2026-05-05 12:47 40.49681 -3.56553 1979 ft 5 kts 310°
2026-05-05 12:48 40.49693 -3.56619 1980 ft 9 kts 273°
2026-05-05 12:48 40.49694 -3.56645 1980 ft 4 kts 273°
2026-05-05 12:48 40.49694 -3.56646 1980 ft 0 kts 273°